Observation data for Hobbs on 12/08/2018      Previous  Date       Current Mesonet Observations  Soil Data  Daily Summary Page  Observations in Plain Language
KHO1 080600Z 02007KT M00/M00 A3026 RMK A01 T10011001  RH  100%=      5-min Rain = 0
KHO1 080601Z 02007KT M00/M00 A3026 RMK A01 T10011001  RH  100%=      5-min Rain = 0
KHO1 080602Z 02008KT M00/M00 A3026 RMK A01 T10011001  RH  100%=      5-min Rain = 0
KHO1 080603Z 02009KT M00/M00 A3026 RMK A01 T10011001  RH  100%=      5-min Rain = 0
KHO1 080604Z 02007KT M00/M00 A3026 RMK A01 T10011001  RH  100%=      5-min Rain = 0
KHO1 080605Z 03008KT M00/M00 A3026 RMK A01 T10011001  RH  100%=      5-min Rain = 0
KHO1 080606Z 02007KT M00/M00 A3026 RMK A01 T10021002  RH  100%=      5-min Rain = 0
KHO1 080607Z 02006KT M00/M00 A3026 RMK A01 T10021002  RH  100%=      5-min Rain = 0
KHO1 080608Z 02007KT M00/M00 A3026 RMK A01 T10021002  RH  100%=      5-min Rain = 0
KHO1 080609Z 02008KT M00/M00 A3026 RMK A01 T10021002  RH  100%=      5-min Rain = 0
KHO1 080610Z 02008KT M00/M00 A3026 RMK A01 T10021002  RH  100%=      5-min Rain = 0
KHO1 080611Z 03007KT M00/M00 A3026 RMK A01 T10021002  RH  100%=      5-min Rain = 0
KHO1 080612Z 02008KT M00/M00 A3026 RMK A01 T10021002  RH  100%=      5-min Rain = 0
KHO1 080613Z 02008KT M00/M00 A3026 RMK A01 T10021002  RH  100%=      5-min Rain = 0
KHO1 080614Z 02009KT M00/M00 A3026 RMK A01 T10021002  RH  100%=      5-min Rain = 0
KHO1 080615Z 03008KT M00/M00 A3026 RMK A01 T10021002  RH  100%=      5-min Rain = 0
KHO1 080616Z 02007KT M00/M00 A3026 RMK A01 T10021002  RH  100%=      5-min Rain = 0
KHO1 080617Z 02009KT M00/M00 A3025 RMK A01 T10021002  RH  100%=      5-min Rain = 0
KHO1 080618Z 03009KT M00/M00 A3025 RMK A01 T10021002  RH  100%=      5-min Rain = 0
KHO1 080619Z 02009KT M00/M00 A3025 RMK A01 T10021002  RH  100%=      5-min Rain = 0
KHO1 080620Z 03009KT M00/M00 A3025 RMK A01 T10021002  RH  100%=      5-min Rain = 0
KHO1 080621Z 03010KT M00/M00 A3025 RMK A01 T10021002  RH  100%=      5-min Rain = 0
KHO1 080622Z 03010KT M00/M00 A3025 RMK A01 T10031003  RH  100%=      5-min Rain = 0
KHO1 080623Z 03010KT M00/M00 A3025 RMK A01 T10031003  RH  100%=      5-min Rain = 0
KHO1 080624Z 03010KT M00/M00 A3025 RMK A01 T10021003  RH  100%=      5-min Rain = 0
KHO1 080625Z 03010KT M00/M00 A3024 RMK A01 T10031003  RH  100%=      5-min Rain = 0
KHO1 080626Z 03010KT M00/M00 A3024 RMK A01 T10021003  RH  100%=      5-min Rain = 0
KHO1 080627Z 03010KT M00/M00 A3024 RMK A01 T10021002  RH  100%=      5-min Rain = 0
KHO1 080628Z 03009KT M00/M00 A3024 RMK A01 T10021002  RH  100%=      5-min Rain = 0
KHO1 080629Z 03010KT M00/M00 A3024 RMK A01 T10021002  RH  100%=      5-min Rain = 0
KHO1 080630Z 03009KT M00/M00 A3024 RMK A01 T10021002  RH  100%=      5-min Rain = 0
KHO1 080631Z 03010KT M00/M00 A3024 RMK A01 T10021002  RH  100%=      5-min Rain = 0
KHO1 080632Z 03009KT M00/M00 A3024 RMK A01 T10021002  RH  100%=      5-min Rain = 0
KHO1 080633Z 03009KT M00/M00 A3024 RMK A01 T10021002  RH  100%=      5-min Rain = 0
KHO1 080634Z 03010KT M00/M00 A3024 RMK A01 T10021002  RH  100%=      5-min Rain = 0
KHO1 080635Z 03009KT M00/M00 A3024 RMK A01 T10021002  RH  100%=      5-min Rain = 0
KHO1 080636Z 03008KT M00/M00 A3024 RMK A01 T10021002  RH  100%=      5-min Rain = 0
KHO1 080637Z 03010KT M00/M00 A3024 RMK A01 T10021002  RH  100%=      5-min Rain = 0
KHO1 080638Z 03010KT M00/M00 A3024 RMK A01 T10021002  RH  100%=      5-min Rain = 0
KHO1 080639Z 03011KT M00/M00 A3024 RMK A01 T10021002  RH  100%=      5-min Rain = 0
KHO1 080640Z 03011KT M00/M00 A3024 RMK A01 T10021002  RH  100%=      5-min Rain = 0
KHO1 080641Z 03009KT M00/M00 A3024 RMK A01 T10021002  RH  100%=      5-min Rain = 0
KHO1 080642Z 03009KT M00/M00 A3024 RMK A01 T10021002  RH  100%=      5-min Rain = 0
KHO1 080643Z 03011KT M00/M00 A3023 RMK A01 T10021002  RH  100%=      5-min Rain = 0
KHO1 080644Z 03010KT M00/M00 A3023 RMK A01 T10021002  RH  100%=      5-min Rain = 0
KHO1 080645Z 03010KT M00/M00 A3023 RMK A01 T10021002  RH  100%=      5-min Rain = 0
KHO1 080646Z 03012KT M00/M00 A3023 RMK A01 T10021002  RH  100%=      5-min Rain = 0
KHO1 080647Z 03011KT M00/M00 A3023 RMK A01 T10021002  RH  100%=      5-min Rain = 0
KHO1 080648Z 03012KT M00/M00 A3022 RMK A01 T10021002  RH  100%=      5-min Rain = 0
KHO1 080649Z 03012KT M00/M00 A3022 RMK A01 T10021002  RH  100%=      5-min Rain = 0
KHO1 080650Z 03012KT M00/M00 A3022 RMK A01 T10021002  RH  100%=      5-min Rain = 0
KHO1 080651Z 03013KT M00/M00 A3022 RMK A01 T10021002  RH  100%=      5-min Rain = 0
KHO1 080652Z 03014KT M00/M00 A3022 RMK A01 T10021002  RH  100%=      5-min Rain = 0
KHO1 080653Z 03012G17KT M00/M00 A3022 RMK A01 T10021002  RH  100%=      5-min Rain = 0
KHO1 080654Z 03011KT M00/M00 A3022 RMK A01 T10021002  RH  100%=      5-min Rain = 0
KHO1 080655Z 03012KT M00/M00 A3022 RMK A01 T10021002  RH  100%=      5-min Rain = 0
KHO1 080656Z 03011KT M00/M00 A3022 RMK A01 T10021002  RH  100%=      5-min Rain = 0
KHO1 080657Z 03012KT M00/M00 A3022 RMK A01 T10021002  RH  100%=      5-min Rain = 0
KHO1 080658Z 03010KT M00/M00 A3022 RMK A01 T10021002  RH  100%=      5-min Rain = 0
KHO1 080659Z 02010KT M00/M00 A3022 RMK A01 T10021002  RH  100%=      5-min Rain = 0
KHO1 080700Z 02012KT M00/M00 A3022 RMK A01 T10021002  RH  100%=      5-min Rain = 0
KHO1 080701Z 03013KT M00/M00 A3022 RMK A01 T10021002  RH  100%=      5-min Rain = 0
KHO1 080702Z 02012KT M00/M00 A3022 RMK A01 T10021002  RH  100%=      5-min Rain = 0
KHO1 080703Z 03013KT M00/M00 A3022 RMK A01 T10021002  RH  100%=      5-min Rain = 0
KHO1 080704Z 02011KT M00/M00 A3022 RMK A01 T10021002  RH  100%=      5-min Rain = 0
KHO1 080705Z 03011KT M00/M00 A3022 RMK A01 T10021002  RH  100%=      5-min Rain = 0
KHO1 080706Z 03010KT M00/M00 A3022 RMK A01 T10021002  RH  100%=      5-min Rain = 0
KHO1 080707Z 03010KT M00/M00 A3022 RMK A01 T10021002  RH  100%=      5-min Rain = 0
KHO1 080708Z 03011KT M00/M00 A3022 RMK A01 T10021002  RH  100%=      5-min Rain = 0
KHO1 080709Z 04011KT M00/M00 A3022 RMK A01 T10021002  RH  100%=      5-min Rain = 0
KHO1 080710Z 03011KT M00/M00 A3022 RMK A01 T10021002  RH  100%=      5-min Rain = 0
KHO1 080711Z 04009KT M00/M00 A3022 RMK A01 T10021002  RH  100%=      5-min Rain = 0
KHO1 080712Z 03009KT M00/M00 A3023 RMK A01 T10021002  RH  100%=      5-min Rain = 0
KHO1 080713Z 03008KT M00/M00 A3023 RMK A01 T10021002  RH  100%=      5-min Rain = 0
KHO1 080714Z 04009KT M00/M00 A3023 RMK A01 T10021002  RH  100%=      5-min Rain = 0
KHO1 080715Z 03008KT M00/M00 A3023 RMK A01 T10021002  RH  100%=      5-min Rain = 0
KHO1 080716Z 03010KT M00/M00 A3023 RMK A01 T10021002  RH  100%=      5-min Rain = 0
KHO1 080717Z 03009KT M00/M00 A3023 RMK A01 T10021002  RH  100%=      5-min Rain = 0
KHO1 080718Z 03009KT M00/M00 A3023 RMK A01 T10021002  RH  100%=      5-min Rain = 0
KHO1 080719Z 02010KT M00/M00 A3023 RMK A01 T10021002  RH  100%=      5-min Rain = 0
KHO1 080720Z 02011KT M00/M00 A3023 RMK A01 T10021002  RH  100%=      5-min Rain = 0
KHO1 080721Z 03011KT M00/M00 A3023 RMK A01 T10021002  RH  100%=      5-min Rain = 0
KHO1 080722Z 03010KT M00/M00 A3023 RMK A01 T10021002  RH  100%=      5-min Rain = 0
KHO1 080723Z 03008KT M00/M00 A3023 RMK A01 T10021002  RH  100%=      5-min Rain = 0
KHO1 080724Z 02010KT M00/M00 A3023 RMK A01 T10021002  RH  100%=      5-min Rain = 0
KHO1 080725Z 02009KT M00/M00 A3023 RMK A01 T10021002  RH  100%=      5-min Rain = 0
KHO1 080726Z 02009KT M00/M00 A3023 RMK A01 T10021002  RH  100%=      5-min Rain = 0
KHO1 080727Z 02008KT M00/M00 A3023 RMK A01 T10021002  RH  100%=      5-min Rain = 0
KHO1 080728Z 02009KT M00/M00 A3023 RMK A01 T10021002  RH  100%=      5-min Rain = 0
KHO1 080729Z 02009KT M00/M00 A3023 RMK A01 T10021002  RH  100%=      5-min Rain = 0
KHO1 080730Z 02008KT M00/M00 A3023 RMK A01 T10021002  RH  100%=      5-min Rain = 0
KHO1 080731Z 02008KT M00/M00 A3023 RMK A01 T10021002  RH  100%=      5-min Rain = 0
KHO1 080732Z 02010KT M00/M00 A3023 RMK A01 T10021002  RH  100%=      5-min Rain = 0
KHO1 080733Z 02010KT M00/M00 A3023 RMK A01 T10011001  RH  100%=      5-min Rain = 0
KHO1 080734Z 02010KT M00/M00 A3023 RMK A01 T10011001  RH  100%=      5-min Rain = 0
KHO1 080735Z 02008KT M00/M00 A3024 RMK A01 T10011001  RH  100%=      5-min Rain = 0
KHO1 080736Z 02008KT M00/M00 A3024 RMK A01 T10011001  RH  100%=      5-min Rain = 0
KHO1 080737Z 02007KT M00/M00 A3024 RMK A01 T10011001  RH  100%=      5-min Rain = 0
KHO1 080738Z 02008KT M00/M00 A3024 RMK A01 T10011001  RH  100%=      5-min Rain = 0
KHO1 080739Z 01008KT M00/M00 A3024 RMK A01 T10011001  RH  100%=      5-min Rain = 0
KHO1 080740Z 01010KT M00/M00 A3024 RMK A01 T10011001  RH  100%=      5-min Rain = 0
KHO1 080741Z 01008KT M00/M00 A3024 RMK A01 T10011001  RH  100%=      5-min Rain = 0
KHO1 080742Z 01008KT M00/M00 A3024 RMK A01 T10011001  RH  100%=      5-min Rain = 0
KHO1 080743Z 01007KT M00/M00 A3024 RMK A01 T10011001  RH  100%=      5-min Rain = 0
KHO1 080744Z 01008KT M00/M00 A3024 RMK A01 T10011001  RH  100%=      5-min Rain = 0
KHO1 080745Z 01008KT M00/M00 A3024 RMK A01 T10011001  RH  100%=      5-min Rain = 0
KHO1 080746Z 00007KT M00/M00 A3024 RMK A01 T10011001  RH  100%=      5-min Rain = 0
KHO1 080747Z 01008KT M00/M00 A3024 RMK A01 T10011001  RH  100%=      5-min Rain = 0
KHO1 080748Z 01008KT M00/M00 A3024 RMK A01 T10011001  RH  100%=      5-min Rain = 0
KHO1 080749Z 01009KT M00/M00 A3024 RMK A01 T10011001  RH  100%=      5-min Rain = 0
KHO1 080750Z 01007KT M00/M00 A3024 RMK A01 T10011001  RH  100%=      5-min Rain = 0
KHO1 080751Z 01008KT M00/M00 A3024 RMK A01 T10011001  RH  100%=      5-min Rain = 0
KHO1 080752Z 00008KT M00/M00 A3024 RMK A01 T10011001  RH  100%=      5-min Rain = 0
KHO1 080753Z 01008KT M00/M00 A3024 RMK A01 T10011001  RH  100%=      5-min Rain = 0
KHO1 080754Z 00009KT M00/M00 A3024 RMK A01 T10011001  RH  100%=      5-min Rain = 0
KHO1 080755Z 00008KT M00/M00 A3024 RMK A01 T10011001  RH  100%=      5-min Rain = 0
KHO1 080756Z 36008KT M00/M00 A3024 RMK A01 T10011001  RH  100%=      5-min Rain = 0
KHO1 080757Z 36007KT M00/M00 A3024 RMK A01 T10011001  RH  100%=      5-min Rain = 0
KHO1 080758Z 36006KT M00/M00 A3024 RMK A01 T10011001  RH  100%=      5-min Rain = 0
KHO1 080759Z 00007KT M00/M00 A3024 RMK A01 T10011001  RH  100%=      5-min Rain = 0
KHO1 080800Z 01008KT M00/M00 A3024 RMK A01 T10011001  RH  100%=      5-min Rain = 0
KHO1 080801Z 00007KT M00/M00 A3024 RMK A01 T10011001  RH  100%=      5-min Rain = 0
KHO1 080802Z 01008KT M00/M00 A3024 RMK A01 T10011001  RH  100%=      5-min Rain = 0
KHO1 080803Z 01009KT M00/M00 A3024 RMK A01 T10011001  RH  100%=      5-min Rain = 0
KHO1 080804Z 01008KT M00/M00 A3024 RMK A01 T10011001  RH  100%=      5-min Rain = 0
KHO1 080805Z 01009KT M00/M00 A3024 RMK A01 T10011001  RH  100%=      5-min Rain = 0
KHO1 080806Z 01008KT M00/M00 A3024 RMK A01 T10011001  RH  100%=      5-min Rain = 0
KHO1 080807Z 01009KT M00/M00 A3024 RMK A01 T10011001  RH  100%=      5-min Rain = 0
KHO1 080808Z 01008KT M00/M00 A3024 RMK A01 T10011001  RH  100%=      5-min Rain = 0
KHO1 080809Z 01008KT M00/M00 A3024 RMK A01 T10011001  RH  100%=      5-min Rain = 0
KHO1 080810Z 02010KT M00/M00 A3024 RMK A01 T10011001  RH  100%=      5-min Rain = 0
KHO1 080811Z 02009KT M00/M00 A3024 RMK A01 T10011001  RH  100%=      5-min Rain = 0
KHO1 080812Z 01009KT M00/M00 A3024 RMK A01 T10011001  RH  100%=      5-min Rain = 0
KHO1 080813Z 02010KT M00/M00 A3024 RMK A01 T10011001  RH  100%=      5-min Rain = 0
KHO1 080814Z 03009KT M00/M00 A3024 RMK A01 T10011001  RH  100%=      5-min Rain = 0
KHO1 080815Z 03010KT M00/M00 A3023 RMK A01 T10011001  RH  100%=      5-min Rain = 0
KHO1 080816Z 03010KT M00/M00 A3023 RMK A01 T10021002  RH  100%=      5-min Rain = 0
KHO1 080817Z 02011KT M00/M00 A3023 RMK A01 T10021002  RH  100%=      5-min Rain = 0
KHO1 080818Z 02011KT M00/M00 A3023 RMK A01 T10021002  RH  100%=      5-min Rain = 0
KHO1 080819Z 02010KT M00/M00 A3023 RMK A01 T10021002  RH  100%=      5-min Rain = 0
KHO1 080820Z 02009KT M00/M00 A3023 RMK A01 T10021002  RH  100%=      5-min Rain = 0
KHO1 080821Z 02007KT M00/M00 A3024 RMK A01 T10011001  RH  100%=      5-min Rain = 0
KHO1 080822Z 02007KT M00/M00 A3024 RMK A01 T10011001  RH  100%=      5-min Rain = 0
KHO1 080823Z 02008KT M00/M00 A3023 RMK A01 T10021002  RH  100%=      5-min Rain = 0
KHO1 080824Z 02008KT M00/M00 A3023 RMK A01 T10021002  RH  100%=      5-min Rain = 0
KHO1 080825Z 02007KT M00/M00 A3024 RMK A01 T10021002  RH  100%=      5-min Rain = 0
KHO1 080826Z 02008KT M00/M00 A3024 RMK A01 T10011001  RH  100%=      5-min Rain = 0
KHO1 080827Z 01008KT M00/M00 A3024 RMK A01 T10011001  RH  100%=      5-min Rain = 0
KHO1 080828Z 01008KT M00/M00 A3024 RMK A01 T10011001  RH  100%=      5-min Rain = 0
KHO1 080829Z 02007KT M00/M00 A3024 RMK A01 T10011001  RH  100%=      5-min Rain = 0
KHO1 080830Z 01007KT M00/M00 A3024 RMK A01 T10011001  RH  100%=      5-min Rain = 0
KHO1 080831Z 01006KT M00/M00 A3024 RMK A01 T10011001  RH  100%=      5-min Rain = 0
KHO1 080832Z 01007KT M00/M00 A3024 RMK A01 T10011001  RH  100%=      5-min Rain = 0
KHO1 080833Z 01007KT M00/M00 A3024 RMK A01 T10011001  RH  100%=      5-min Rain = 0
KHO1 080834Z 01006KT M00/M00 A3024 RMK A01 T10011001  RH  100%=      5-min Rain = 0
KHO1 080835Z 01007KT M00/M00 A3024 RMK A01 T10011001  RH  100%=      5-min Rain = 0
KHO1 080836Z 01008KT M00/M00 A3024 RMK A01 T10011001  RH  100%=      5-min Rain = 0
KHO1 080837Z 02007KT M00/M00 A3024 RMK A01 T10011001  RH  100%=      5-min Rain = 0
KHO1 080838Z 02009KT M00/M00 A3024 RMK A01 T10021002  RH  100%=      5-min Rain = 0
KHO1 080839Z 02008KT M00/M00 A3024 RMK A01 T10021002  RH  100%=      5-min Rain = 0
KHO1 080840Z 01007KT M00/M00 A3025 RMK A01 T10021002  RH  100%=      5-min Rain = 0
KHO1 080841Z 02007KT M00/M00 A3025 RMK A01 T10021002  RH  100%=      5-min Rain = 0
KHO1 080842Z 02008KT M00/M00 A3025 RMK A01 T10011001  RH  100%=      5-min Rain = 0
KHO1 080843Z 02009KT M00/M00 A3025 RMK A01 T10021002  RH  100%=      5-min Rain = 0
KHO1 080844Z 02007KT M00/M00 A3025 RMK A01 T10021002  RH  100%=      5-min Rain = 0
KHO1 080845Z 02007KT M00/M00 A3025 RMK A01 T10021002  RH  100%=      5-min Rain = 0
KHO1 080846Z 01008KT M00/M00 A3025 RMK A01 T10021002  RH  100%=      5-min Rain = 0
KHO1 080847Z 02006KT M00/M00 A3025 RMK A01 T10021002  RH  100%=      5-min Rain = 0
KHO1 080848Z 02006KT M00/M00 A3025 RMK A01 T10021002  RH  100%=      5-min Rain = 0
KHO1 080849Z 01006KT M00/M00 A3025 RMK A01 T10021002  RH  100%=      5-min Rain = 0
KHO1 080850Z 01005KT M00/M00 A3025 RMK A01 T10021002  RH  100%=      5-min Rain = 0
KHO1 080851Z 01006KT M00/M00 A3025 RMK A01 T10021002  RH  100%=      5-min Rain = 0
KHO1 080852Z 01006KT M00/M00 A3025 RMK A01 T10021002  RH  100%=      5-min Rain = 0
KHO1 080853Z 00006KT M00/M00 A3025 RMK A01 T10021002  RH  100%=      5-min Rain = 0
KHO1 080854Z 01005KT M00/M00 A3025 RMK A01 T10021002  RH  100%=      5-min Rain = 0
KHO1 080855Z 01006KT M00/M00 A3025 RMK A01 T10021002  RH  100%=      5-min Rain = 0
KHO1 080856Z 01006KT M00/M00 A3025 RMK A01 T10021002  RH  100%=      5-min Rain = 0
KHO1 080857Z 02005KT M00/M00 A3025 RMK A01 T10021002  RH  100%=      5-min Rain = 0
KHO1 080858Z 01006KT M00/M00 A3025 RMK A01 T10021002  RH  100%=      5-min Rain = 0
KHO1 080859Z 02006KT M00/M00 A3025 RMK A01 T10021002  RH  100%=      5-min Rain = 0
KHO1 080900Z 01006KT M00/M00 A3025 RMK A01 T10021002  RH  100%=      5-min Rain = 0
KHO1 080901Z 02007KT M00/M00 A3025 RMK A01 T10021002  RH  100%=      5-min Rain = 0
KHO1 080902Z 02008KT M00/M00 A3025 RMK A01 T10021002  RH  100%=      5-min Rain = 0
KHO1 080903Z 02008KT M00/M00 A3025 RMK A01 T10021002  RH  100%=      5-min Rain = 0
KHO1 080904Z 02007KT M00/M00 A3025 RMK A01 T10021002  RH  100%=      5-min Rain = 0
KHO1 080905Z 02007KT M00/M00 A3025 RMK A01 T10021002  RH  100%=      5-min Rain = 0
KHO1 080906Z 02007KT M00/M00 A3025 RMK A01 T10021002  RH  100%=      5-min Rain = 0
KHO1 080907Z 02006KT M00/M00 A3025 RMK A01 T10021002  RH  100%=      5-min Rain = 0
KHO1 080908Z 01006KT M00/M00 A3025 RMK A01 T10021002  RH  100%=      5-min Rain = 0
KHO1 080909Z 02005KT M00/M00 A3025 RMK A01 T10021002  RH  100%=      5-min Rain = 0
KHO1 080910Z 02005KT M00/M00 A3025 RMK A01 T10021002  RH  100%=      5-min Rain = 0
KHO1 080911Z 02005KT M00/M00 A3025 RMK A01 T10021002  RH  100%=      5-min Rain = 0
KHO1 080912Z 02004KT M00/M00 A3025 RMK A01 T10021002  RH  100%=      5-min Rain = 0
KHO1 080913Z 02004KT M00/M00 A3025 RMK A01 T10021002  RH  100%=      5-min Rain = 0
KHO1 080914Z 01005KT M00/M00 A3025 RMK A01 T10021002  RH  100%=      5-min Rain = 0
KHO1 080915Z 02004KT M00/M00 A3025 RMK A01 T10021002  RH  100%=      5-min Rain = 0
KHO1 080916Z 01004KT M00/M00 A3025 RMK A01 T10021002  RH  100%=      5-min Rain = 0
KHO1 080917Z 01005KT M00/M00 A3025 RMK A01 T10021002  RH  100%=      5-min Rain = 0
KHO1 080918Z 01004KT M00/M00 A3026 RMK A01 T10021002  RH  100%=      5-min Rain = 0
KHO1 080919Z 36004KT M00/M00 A3026 RMK A01 T10021002  RH  100%=      5-min Rain = 0
KHO1 080920Z 01005KT M00/M00 A3026 RMK A01 T10021002  RH  100%=      5-min Rain = 0
KHO1 080921Z 01005KT M00/M00 A3026 RMK A01 T10021002  RH  100%=      5-min Rain = 0
KHO1 080922Z 01005KT M00/M00 A3026 RMK A01 T10021002  RH  100%=      5-min Rain = 0
KHO1 080923Z 00004KT M00/M00 A3026 RMK A01 T10021002  RH  100%=      5-min Rain = 0
KHO1 080924Z 01005KT M00/M00 A3025 RMK A01 T10021002  RH  100%=      5-min Rain = 0
KHO1 080925Z 01005KT M00/M00 A3025 RMK A01 T10021002  RH  100%=      5-min Rain = 0
KHO1 080926Z 01006KT M00/M00 A3026 RMK A01 T10021002  RH  100%=      5-min Rain = 0
KHO1 080927Z 01007KT M00/M00 A3025 RMK A01 T10021002  RH  100%=      5-min Rain = 0
KHO1 080928Z 01006KT M00/M00 A3025 RMK A01 T10021002  RH  100%=      5-min Rain = 0
KHO1 080929Z 01007KT M00/M00 A3025 RMK A01 T10021002  RH  100%=      5-min Rain = 0
KHO1 080930Z 01007KT M00/M00 A3025 RMK A01 T10021002  RH  100%=      5-min Rain = 0
KHO1 080931Z 01008KT M00/M00 A3025 RMK A01 T10021002  RH  100%=      5-min Rain = 0
KHO1 080932Z 00006KT M00/M00 A3025 RMK A01 T10031003  RH  100%=      5-min Rain = 0
KHO1 080933Z 01007KT M00/M00 A3025 RMK A01 T10031003  RH  100%=      5-min Rain = 0
KHO1 080934Z 01006KT M00/M00 A3025 RMK A01 T10031003  RH  100%=      5-min Rain = 0
KHO1 080935Z 01007KT M00/M00 A3025 RMK A01 T10031003  RH  100%=      5-min Rain = 0
KHO1 080936Z 01007KT M00/M00 A3025 RMK A01 T10031003  RH  100%=      5-min Rain = 0
KHO1 080937Z 01008KT M00/M00 A3025 RMK A01 T10031003  RH  100%=      5-min Rain = 0
KHO1 080938Z 01007KT M00/M00 A3025 RMK A01 T10031003  RH  100%=      5-min Rain = 0
KHO1 080939Z 02009KT M00/M00 A3025 RMK A01 T10031003  RH  100%=      5-min Rain = 0
KHO1 080940Z 01010KT M00/M00 A3025 RMK A01 T10031003  RH  100%=      5-min Rain = 0
KHO1 080941Z 03009KT M00/M00 A3025 RMK A01 T10031003  RH  100%=      5-min Rain = 0
KHO1 080942Z 02008KT M00/M00 A3025 RMK A01 T10031003  RH  100%=      5-min Rain = 0
KHO1 080943Z 02010KT M00/M00 A3025 RMK A01 T10031003  RH  100%=      5-min Rain = 0
KHO1 080944Z 02009KT M00/M00 A3025 RMK A01 T10031003  RH  100%=      5-min Rain = 0
KHO1 080945Z 03008KT M00/M00 A3025 RMK A01 T10031003  RH  100%=      5-min Rain = 0
KHO1 080946Z 02009KT M00/M00 A3025 RMK A01 T10031003  RH  100%=      5-min Rain = 0
KHO1 080947Z 02008KT M00/M00 A3025 RMK A01 T10041004  RH  100%=      5-min Rain = 0
KHO1 080948Z 03009KT M00/M00 A3025 RMK A01 T10041004  RH  100%=      5-min Rain = 0
KHO1 080949Z 02008KT M00/M00 A3025 RMK A01 T10041004  RH  100%=      5-min Rain = 0
KHO1 080950Z 02008KT M00/M00 A3025 RMK A01 T10041004  RH  100%=      5-min Rain = 0
KHO1 080951Z 02009KT M00/M00 A3025 RMK A01 T10041004  RH  100%=      5-min Rain = 0
KHO1 080952Z 02009KT M00/M00 A3025 RMK A01 T10041004  RH  100%=      5-min Rain = 0
KHO1 080953Z 02009KT M00/M00 A3025 RMK A01 T10041004  RH  100%=      5-min Rain = 0
KHO1 080954Z 02006KT M00/M00 A3025 RMK A01 T10041004  RH  100%=      5-min Rain = 0
KHO1 080955Z 02008KT M00/M00 A3025 RMK A01 T10041004  RH  100%=      5-min Rain = 0
KHO1 080956Z 02008KT M00/M00 A3025 RMK A01 T10041004  RH  100%=      5-min Rain = 0
KHO1 080957Z 02009KT M00/M00 A3025 RMK A01 T10041004  RH  100%=      5-min Rain = 0
KHO1 080958Z 02007KT M00/M00 A3025 RMK A01 T10041004  RH  100%=      5-min Rain = 0
KHO1 080959Z 02009KT M00/M00 A3025 RMK A01 T10041004  RH  100%=      5-min Rain = 0
KHO1 081000Z 02006KT M00/M00 A3025 RMK A01 T10041004  RH  100%=      5-min Rain = 0
KHO1 081001Z 02006KT M00/M00 A3025 RMK A01 T10041004  RH  100%=      5-min Rain = 0
KHO1 081002Z 01006KT M00/M00 A3025 RMK A01 T10041004  RH  100%=      5-min Rain = 0
KHO1 081003Z 01009KT M00/M00 A3025 RMK A01 T10041004  RH  100%=      5-min Rain = 0
KHO1 081004Z 02009KT M00/M00 A3025 RMK A01 T10041004  RH  100%=      5-min Rain = 0
KHO1 081005Z 01007KT M00/M00 A3025 RMK A01 T10041004  RH  100%=      5-min Rain = 0
KHO1 081006Z 01007KT M00/M00 A3025 RMK A01 T10041004  RH  100%=      5-min Rain = 0
KHO1 081007Z 01007KT M00/M00 A3025 RMK A01 T10041004  RH  100%=      5-min Rain = 0
KHO1 081008Z 02007KT M00/M00 A3025 RMK A01 T10041004  RH  100%=      5-min Rain = 0
KHO1 081009Z 01006KT M00/M00 A3025 RMK A01 T10041004  RH  100%=      5-min Rain = 0
KHO1 081010Z 01006KT M00/M00 A3025 RMK A01 T10041004  RH  100%=      5-min Rain = 0
KHO1 081011Z 02006KT M00/M00 A3025 RMK A01 T10041004  RH  100%=      5-min Rain = 0
KHO1 081012Z 02007KT M00/M00 A3025 RMK A01 T10041004  RH  100%=      5-min Rain = 0
KHO1 081013Z 02007KT M00/M00 A3025 RMK A01 T10041004  RH  100%=      5-min Rain = 0
KHO1 081014Z 02006KT M01/M01 A3025 RMK A01 T10051005  RH  100%=      5-min Rain = 0
KHO1 081015Z 02007KT M01/M01 A3025 RMK A01 T10051005  RH  100%=      5-min Rain = 0
KHO1 081016Z 02007KT M01/M01 A3025 RMK A01 T10051005  RH  100%=      5-min Rain = 0
KHO1 081017Z 02007KT M01/M01 A3025 RMK A01 T10051005  RH  100%=      5-min Rain = 0
KHO1 081018Z 02007KT M01/M01 A3025 RMK A01 T10051005  RH  100%=      5-min Rain = 0
KHO1 081019Z 02007KT M01/M01 A3025 RMK A01 T10051005  RH  100%=      5-min Rain = 0
KHO1 081020Z 03006KT M01/M01 A3025 RMK A01 T10051005  RH  100%=      5-min Rain = 0
KHO1 081021Z 03007KT M01/M01 A3025 RMK A01 T10051005  RH  100%=      5-min Rain = 0
KHO1 081022Z 03006KT M01/M01 A3025 RMK A01 T10051005  RH  100%=      5-min Rain = 0
KHO1 081023Z 02006KT M01/M01 A3025 RMK A01 T10051005  RH  100%=      5-min Rain = 0
KHO1 081024Z 03008KT M01/M01 A3025 RMK A01 T10051005  RH  100%=      5-min Rain = 0
KHO1 081025Z 03008KT M01/M01 A3025 RMK A01 T10051005  RH  100%=      5-min Rain = 0
KHO1 081026Z 02009KT M01/M01 A3025 RMK A01 T10051005  RH  100%=      5-min Rain = 0
KHO1 081027Z 02007KT M01/M01 A3025 RMK A01 T10051005  RH  100%=      5-min Rain = 0
KHO1 081028Z 02007KT M01/M01 A3025 RMK A01 T10051005  RH  100%=      5-min Rain = 0
KHO1 081029Z 02006KT M01/M01 A3025 RMK A01 T10051005  RH  100%=      5-min Rain = 0
KHO1 081030Z 02006KT M01/M01 A3025 RMK A01 T10051005  RH  100%=      5-min Rain = 0
KHO1 081031Z 02006KT M01/M01 A3025 RMK A01 T10051005  RH  100%=      5-min Rain = 0
KHO1 081032Z 02006KT M01/M01 A3025 RMK A01 T10051005  RH  100%=      5-min Rain = 0
KHO1 081033Z 02006KT M01/M01 A3025 RMK A01 T10051005  RH  100%=      5-min Rain = 0
KHO1 081034Z 02006KT M01/M01 A3025 RMK A01 T10051005  RH  100%=      5-min Rain = 0
KHO1 081035Z 03007KT M01/M01 A3025 RMK A01 T10051005  RH  100%=      5-min Rain = 0
KHO1 081036Z 03007KT M01/M01 A3025 RMK A01 T10051005  RH  100%=      5-min Rain = 0
KHO1 081037Z 02006KT M01/M01 A3025 RMK A01 T10051005  RH  100%=      5-min Rain = 0
KHO1 081038Z 02007KT M01/M01 A3025 RMK A01 T10051005  RH  100%=      5-min Rain = 0
KHO1 081039Z 02006KT M01/M01 A3025 RMK A01 T10051005  RH  100%=      5-min Rain = 0
KHO1 081040Z 02007KT M01/M01 A3025 RMK A01 T10051005  RH  100%=      5-min Rain = 0
KHO1 081041Z 02006KT M01/M01 A3025 RMK A01 T10051005  RH  100%=      5-min Rain = 0
KHO1 081042Z 02007KT M01/M01 A3025 RMK A01 T10051005  RH  100%=      5-min Rain = 0
KHO1 081043Z 02007KT M01/M01 A3025 RMK A01 T10051005  RH  100%=      5-min Rain = 0
KHO1 081044Z 02006KT M01/M01 A3025 RMK A01 T10051005  RH  100%=      5-min Rain = 0
KHO1 081045Z 02007KT M01/M01 A3025 RMK A01 T10051005  RH  100%=      5-min Rain = 0
KHO1 081046Z 02007KT M01/M01 A3025 RMK A01 T10051005  RH  100%=      5-min Rain = 0
KHO1 081047Z 03008KT M01/M01 A3025 RMK A01 T10051005  RH  100%=      5-min Rain = 0
KHO1 081048Z 02007KT M01/M01 A3025 RMK A01 T10051005  RH  100%=      5-min Rain = 0
KHO1 081049Z 02006KT M01/M01 A3025 RMK A01 T10051005  RH  100%=      5-min Rain = 0
KHO1 081050Z 02009KT M01/M01 A3025 RMK A01 T10051005  RH  100%=      5-min Rain = 0
KHO1 081051Z 03007KT M01/M01 A3025 RMK A01 T10061006  RH  100%=      5-min Rain = 0
KHO1 081052Z 02007KT M01/M01 A3025 RMK A01 T10061006  RH  100%=      5-min Rain = 0
KHO1 081053Z 03007KT M01/M01 A3025 RMK A01 T10061006  RH  100%=      5-min Rain = 0
KHO1 081054Z 02007KT M01/M01 A3025 RMK A01 T10061006  RH  100%=      5-min Rain = 0
KHO1 081055Z 02007KT M01/M01 A3025 RMK A01 T10061006  RH  100%=      5-min Rain = 0
KHO1 081056Z 02008KT M01/M01 A3025 RMK A01 T10061006  RH  100%=      5-min Rain = 0
KHO1 081057Z 02008KT M01/M01 A3025 RMK A01 T10061006  RH  100%=      5-min Rain = 0
KHO1 081058Z 02007KT M01/M01 A3025 RMK A01 T10061006  RH  100%=      5-min Rain = 0
KHO1 081059Z 02007KT M01/M01 A3025 RMK A01 T10061006  RH  100%=      5-min Rain = 0
KHO1 081100Z 02007KT M01/M01 A3025 RMK A01 T10061006  RH  100%=      5-min Rain = 0
KHO1 081101Z 02007KT M01/M01 A3025 RMK A01 T10061006  RH  100%=      5-min Rain = 0
KHO1 081102Z 02008KT M01/M01 A3025 RMK A01 T10061006  RH  100%=      5-min Rain = 0
KHO1 081103Z 02009KT M01/M01 A3025 RMK A01 T10061006  RH  100%=      5-min Rain = 0
KHO1 081104Z 02009KT M01/M01 A3025 RMK A01 T10061006  RH  100%=      5-min Rain = 0
KHO1 081105Z 03009KT M01/M01 A3025 RMK A01 T10061006  RH  100%=      5-min Rain = 0
KHO1 081106Z 03009KT M01/M01 A3025 RMK A01 T10071007  RH  100%=      5-min Rain = 0
KHO1 081107Z 03010KT M01/M01 A3025 RMK A01 T10071007  RH  100%=      5-min Rain = 0
KHO1 081108Z 03008KT M01/M01 A3025 RMK A01 T10071007  RH  100%=      5-min Rain = 0
KHO1 081109Z 03008KT M01/M01 A3025 RMK A01 T10071007  RH  100%=      5-min Rain = 0
KHO1 081110Z 03007KT M01/M01 A3025 RMK A01 T10071007  RH  100%=      5-min Rain = 0
KHO1 081111Z 03008KT M01/M01 A3025 RMK A01 T10071007  RH  100%=      5-min Rain = 0
KHO1 081112Z 03008KT M01/M01 A3025 RMK A01 T10071007  RH  100%=      5-min Rain = 0
KHO1 081113Z 03008KT M01/M01 A3025 RMK A01 T10071007  RH  100%=      5-min Rain = 0
KHO1 081114Z 03008KT M01/M01 A3025 RMK A01 T10071007  RH  100%=      5-min Rain = 0
KHO1 081115Z 03009KT M01/M01 A3025 RMK A01 T10071007  RH  100%=      5-min Rain = 0
KHO1 081116Z 03008KT M01/M01 A3025 RMK A01 T10071007  RH  100%=      5-min Rain = 0
KHO1 081117Z 03007KT M01/M01 A3025 RMK A01 T10071007  RH  100%=      5-min Rain = 0
KHO1 081118Z 03007KT M01/M01 A3025 RMK A01 T10071007  RH  100%=      5-min Rain = 0
KHO1 081119Z 03007KT M01/M01 A3025 RMK A01 T10071007  RH  100%=      5-min Rain = 0
KHO1 081120Z 02007KT M01/M01 A3025 RMK A01 T10071007  RH  100%=      5-min Rain = 0
KHO1 081121Z 03006KT M01/M01 A3025 RMK A01 T10071007  RH  100%=      5-min Rain = 0
KHO1 081122Z 02007KT M01/M01 A3025 RMK A01 T10071007  RH  100%=      5-min Rain = 0
KHO1 081123Z 03006KT M01/M01 A3025 RMK A01 T10071007  RH  100%=      5-min Rain = 0
KHO1 081124Z 03006KT M01/M01 A3025 RMK A01 T10071007  RH  100%=      5-min Rain = 0
KHO1 081125Z 02006KT M01/M01 A3026 RMK A01 T10071007  RH  100%=      5-min Rain = 0
KHO1 081126Z 02005KT M01/M01 A3026 RMK A01 T10071007  RH  100%=      5-min Rain = 0
KHO1 081127Z 02007KT M01/M01 A3026 RMK A01 T10061006  RH  100%=      5-min Rain = 0
KHO1 081128Z 02008KT M01/M01 A3025 RMK A01 T10061006  RH  100%=      5-min Rain = 0
KHO1 081129Z 01007KT M01/M01 A3026 RMK A01 T10061006  RH  100%=      5-min Rain = 0
KHO1 081130Z 02006KT M01/M01 A3026 RMK A01 T10071007  RH  100%=      5-min Rain = 0
KHO1 081131Z 02006KT M01/M01 A3026 RMK A01 T10071007  RH  100%=      5-min Rain = 0
KHO1 081132Z 02007KT M01/M01 A3026 RMK A01 T10071007  RH  100%=      5-min Rain = 0
KHO1 081133Z 02006KT M01/M01 A3026 RMK A01 T10071007  RH  100%=      5-min Rain = 0
KHO1 081134Z 02007KT M01/M01 A3026 RMK A01 T10071007  RH  100%=      5-min Rain = 0
KHO1 081135Z 02007KT M01/M01 A3026 RMK A01 T10061006  RH  100%=      5-min Rain = 0
KHO1 081136Z 02008KT M01/M01 A3026 RMK A01 T10071007  RH  100%=      5-min Rain = 0
KHO1 081137Z 02007KT M01/M01 A3026 RMK A01 T10071007  RH  100%=      5-min Rain = 0
KHO1 081138Z 02009KT M01/M01 A3026 RMK A01 T10071007  RH  100%=      5-min Rain = 0
KHO1 081139Z 02010KT M01/M01 A3026 RMK A01 T10071007  RH  100%=      5-min Rain = 0
KHO1 081140Z 02009KT M01/M01 A3026 RMK A01 T10071007  RH  100%=      5-min Rain = 0
KHO1 081141Z 02009KT M01/M01 A3026 RMK A01 T10071007  RH  100%=      5-min Rain = 0
KHO1 081142Z 02009KT M01/M01 A3026 RMK A01 T10071007  RH  100%=      5-min Rain = 0
KHO1 081143Z 02010KT M01/M01 A3026 RMK A01 T10071007  RH  100%=      5-min Rain = 0
KHO1 081144Z 02010KT M01/M01 A3026 RMK A01 T10071007  RH  100%=      5-min Rain = 0
KHO1 081145Z 02008KT M01/M01 A3026 RMK A01 T10071007  RH  100%=      5-min Rain = 0
KHO1 081146Z 02009KT M01/M01 A3026 RMK A01 T10071007  RH  100%=      5-min Rain = 0
KHO1 081147Z 02009KT M01/M01 A3026 RMK A01 T10071007  RH  100%=      5-min Rain = 0
KHO1 081148Z 02007KT M01/M01 A3026 RMK A01 T10081008  RH  100%=      5-min Rain = 0
KHO1 081149Z 03010KT M01/M01 A3026 RMK A01 T10071007  RH  100%=      5-min Rain = 0
KHO1 081150Z 03012KT M01/M01 A3026 RMK A01 T10081008  RH  100%=      5-min Rain = 0
KHO1 081151Z 02009KT M01/M01 A3026 RMK A01 T10081008  RH  100%=      5-min Rain = 0
KHO1 081152Z 02008KT M01/M01 A3026 RMK A01 T10081008  RH  100%=      5-min Rain = 0
KHO1 081153Z 02009KT M01/M01 A3026 RMK A01 T10081008  RH  100%=      5-min Rain = 0
KHO1 081154Z 03009KT M01/M01 A3026 RMK A01 T10081008  RH  100%=      5-min Rain = 0
KHO1 081155Z 02009KT M01/M01 A3027 RMK A01 T10081008  RH  100%=      5-min Rain = 0
KHO1 081156Z 02010KT M01/M01 A3026 RMK A01 T10081008  RH  100%=      5-min Rain = 0
KHO1 081157Z 03009KT M01/M01 A3027 RMK A01 T10081008  RH  100%=      5-min Rain = 0
KHO1 081158Z 02009KT M01/M01 A3026 RMK A01 T10081008  RH  100%=      5-min Rain = 0
KHO1 081159Z 03008KT M01/M01 A3027 RMK A01 T10081008  RH  100%=      5-min Rain = 0
KHO1 081200Z 02008KT M01/M01 A3027 RMK A01 T10081008  RH  100%=      5-min Rain = 0
KHO1 081201Z 02008KT M01/M01 A3027 RMK A01 T10081008  RH  100%=      5-min Rain = 0
KHO1 081202Z 02008KT M01/M01 A3027 RMK A01 T10081008  RH  100%=      5-min Rain = 0
KHO1 081203Z 02008KT M01/M01 A3027 RMK A01 T10081008  RH  100%=      5-min Rain = 0
KHO1 081204Z 02007KT M01/M01 A3027 RMK A01 T10081008  RH  100%=      5-min Rain = 0
KHO1 081205Z 02008KT M01/M01 A3027 RMK A01 T10081008  RH  100%=      5-min Rain = 0
KHO1 081206Z 02007KT M01/M01 A3027 RMK A01 T10081008  RH  100%=      5-min Rain = 0
KHO1 081207Z 02006KT M01/M01 A3027 RMK A01 T10081008  RH  100%=      5-min Rain = 0
KHO1 081208Z 02007KT M01/M01 A3027 RMK A01 T10081008  RH  100%=      5-min Rain = 0
KHO1 081209Z 01006KT M01/M01 A3027 RMK A01 T10081008  RH  100%=      5-min Rain = 0
KHO1 081210Z 01008KT M01/M01 A3027 RMK A01 T10081008  RH  100%=      5-min Rain = 0
KHO1 081211Z 01007KT M01/M01 A3027 RMK A01 T10081008  RH  100%=      5-min Rain = 0
KHO1 081212Z 02007KT M01/M01 A3027 RMK A01 T10081008  RH  100%=      5-min Rain = 0
KHO1 081213Z 02008KT M01/M01 A3027 RMK A01 T10081008  RH  100%=      5-min Rain = 0
KHO1 081214Z 01006KT M01/M01 A3027 RMK A01 T10081008  RH  100%=      5-min Rain = 0
KHO1 081215Z 02006KT M01/M01 A3027 RMK A01 T10081008  RH  100%=      5-min Rain = 0
KHO1 081216Z 01007KT M01/M01 A3027 RMK A01 T10081008  RH  100%=      5-min Rain = 0
KHO1 081217Z 02007KT M01/M01 A3027 RMK A01 T10071007  RH  100%=      5-min Rain = 0
KHO1 081218Z 01008KT M01/M01 A3027 RMK A01 T10081008  RH  100%=      5-min Rain = 0
KHO1 081219Z 02007KT M01/M01 A3027 RMK A01 T10071007  RH  100%=      5-min Rain = 0
KHO1 081220Z 01005KT M01/M01 A3027 RMK A01 T10071007  RH  100%=      5-min Rain = 0
KHO1 081221Z 01006KT M01/M01 A3027 RMK A01 T10071007  RH  100%=      5-min Rain = 0
KHO1 081222Z 01008KT M01/M01 A3027 RMK A01 T10071007  RH  100%=      5-min Rain = 0
KHO1 081223Z 01007KT M01/M01 A3027 RMK A01 T10071007  RH  100%=      5-min Rain = 0
KHO1 081224Z 01007KT M01/M01 A3027 RMK A01 T10071007  RH  100%=      5-min Rain = 0
KHO1 081225Z 01006KT M01/M01 A3027 RMK A01 T10071007  RH  100%=      5-min Rain = 0
KHO1 081226Z 01007KT M01/M01 A3027 RMK A01 T10071007  RH  100%=      5-min Rain = 0
KHO1 081227Z 01007KT M01/M01 A3027 RMK A01 T10071007  RH  100%=      5-min Rain = 0
KHO1 081228Z 01006KT M01/M01 A3027 RMK A01 T10081008  RH  100%=      5-min Rain = 0
KHO1 081229Z 01007KT M01/M01 A3027 RMK A01 T10071007  RH  100%=      5-min Rain = 0
KHO1 081230Z 01006KT M01/M01 A3027 RMK A01 T10071007  RH  100%=      5-min Rain = 0
KHO1 081231Z 01006KT M01/M01 A3027 RMK A01 T10081008  RH  100%=      5-min Rain = 0
KHO1 081232Z 01007KT M01/M01 A3027 RMK A01 T10071007  RH  100%=      5-min Rain = 0
KHO1 081233Z 01008KT M01/M01 A3027 RMK A01 T10071007  RH  100%=      5-min Rain = 0
KHO1 081234Z 01007KT M01/M01 A3027 RMK A01 T10071007  RH  100%=      5-min Rain = 0
KHO1 081235Z 01008KT M01/M01 A3027 RMK A01 T10071007  RH  100%=      5-min Rain = 0
KHO1 081236Z 01008KT M01/M01 A3027 RMK A01 T10081008  RH  100%=      5-min Rain = 0
KHO1 081237Z 01007KT M01/M01 A3027 RMK A01 T10071007  RH  100%=      5-min Rain = 0
KHO1 081238Z 01005KT M01/M01 A3027 RMK A01 T10071007  RH  100%=      5-min Rain = 0
KHO1 081239Z 00006KT M01/M01 A3027 RMK A01 T10071007  RH  100%=      5-min Rain = 0
KHO1 081240Z 01007KT M01/M01 A3027 RMK A01 T10071007  RH  100%=      5-min Rain = 0
KHO1 081241Z 01007KT M01/M01 A3027 RMK A01 T10071007  RH  100%=      5-min Rain = 0
KHO1 081242Z 01006KT M01/M01 A3027 RMK A01 T10071007  RH  100%=      5-min Rain = 0
KHO1 081243Z 01006KT M01/M01 A3027 RMK A01 T10071007  RH  100%=      5-min Rain = 0
KHO1 081244Z 01006KT M01/M01 A3027 RMK A01 T10071007  RH  100%=      5-min Rain = 0
KHO1 081245Z 00005KT M01/M01 A3028 RMK A01 T10071007  RH  100%=      5-min Rain = 0
KHO1 081246Z 36006KT M01/M01 A3028 RMK A01 T10071007  RH  100%=      5-min Rain = 0
KHO1 081247Z 36007KT M01/M01 A3028 RMK A01 T10071007  RH  100%=      5-min Rain = 0
KHO1 081248Z 35008KT M01/M01 A3028 RMK A01 T10071007  RH  100%=      5-min Rain = 0
KHO1 081249Z 35008KT M01/M01 A3027 RMK A01 T10071007  RH  100%=      5-min Rain = 0
KHO1 081250Z 00009KT M01/M01 A3028 RMK A01 T10071007  RH  100%=      5-min Rain = 0
KHO1 081251Z 00010KT M01/M01 A3027 RMK A01 T10071007  RH  100%=      5-min Rain = 0
KHO1 081252Z 00008KT M01/M01 A3028 RMK A01 T10081008  RH  100%=      5-min Rain = 0
KHO1 081253Z 01007KT M01/M01 A3028 RMK A01 T10081008  RH  100%=      5-min Rain = 0
KHO1 081254Z 01008KT M01/M01 A3028 RMK A01 T10081008  RH  100%=      5-min Rain = 0
KHO1 081255Z 01007KT M01/M01 A3028 RMK A01 T10081008  RH  100%=      5-min Rain = 0
KHO1 081256Z 01007KT M01/M01 A3028 RMK A01 T10081008  RH  100%=      5-min Rain = 0
KHO1 081257Z 00007KT M01/M01 A3028 RMK A01 T10081008  RH  100%=      5-min Rain = 0
KHO1 081258Z 00006KT M01/M01 A3028 RMK A01 T10081008  RH  100%=      5-min Rain = 0
KHO1 081259Z 00006KT M01/M01 A3028 RMK A01 T10081008  RH  100%=      5-min Rain = 0
KHO1 081300Z 36006KT M01/M01 A3028 RMK A01 T10081008  RH  100%=      5-min Rain = 0
KHO1 081301Z 00007KT M01/M01 A3028 RMK A01 T10071007  RH  100%=      5-min Rain = 0
KHO1 081302Z 00007KT M01/M01 A3028 RMK A01 T10071007  RH  100%=      5-min Rain = 0
KHO1 081303Z 00007KT M01/M01 A3028 RMK A01 T10071007  RH  100%=      5-min Rain = 0
KHO1 081304Z 00007KT M01/M01 A3028 RMK A01 T10071007  RH  100%=      5-min Rain = 0
KHO1 081305Z 00007KT M01/M01 A3028 RMK A01 T10081008  RH  100%=      5-min Rain = 0
KHO1 081306Z 01008KT M01/M01 A3028 RMK A01 T10081008  RH  100%=      5-min Rain = 0
KHO1 081307Z 01008KT M01/M01 A3028 RMK A01 T10081008  RH  100%=      5-min Rain = 0
KHO1 081308Z 00007KT M01/M01 A3028 RMK A01 T10081008  RH  100%=      5-min Rain = 0
KHO1 081309Z 01006KT M01/M01 A3028 RMK A01 T10081008  RH  100%=      5-min Rain = 0
KHO1 081310Z 36005KT M01/M01 A3028 RMK A01 T10081008  RH  100%=      5-min Rain = 0
KHO1 081311Z 00005KT M01/M01 A3028 RMK A01 T10081008  RH  100%=      5-min Rain = 0
KHO1 081312Z 00005KT M01/M01 A3028 RMK A01 T10081008  RH  100%=      5-min Rain = 0
KHO1 081313Z 36007KT M01/M01 A3028 RMK A01 T10081008  RH  100%=      5-min Rain = 0
KHO1 081314Z 00007KT M01/M01 A3028 RMK A01 T10081008  RH  100%=      5-min Rain = 0
KHO1 081315Z 36007KT M01/M01 A3028 RMK A01 T10081008  RH  100%=      5-min Rain = 0
KHO1 081316Z 00007KT M01/M01 A3028 RMK A01 T10081008  RH  100%=      5-min Rain = 0
KHO1 081317Z 00007KT M01/M01 A3028 RMK A01 T10081008  RH  100%=      5-min Rain = 0
KHO1 081318Z 01009KT M01/M01 A3028 RMK A01 T10081008  RH  100%=      5-min Rain = 0
KHO1 081319Z 00008KT M01/M01 A3028 RMK A01 T10081008  RH  100%=      5-min Rain = 0
KHO1 081320Z 00008KT M01/M01 A3029 RMK A01 T10081008  RH  100%=      5-min Rain = 0
KHO1 081321Z 00007KT M01/M01 A3029 RMK A01 T10081008  RH  100%=      5-min Rain = 0
KHO1 081322Z 01007KT M01/M01 A3029 RMK A01 T10081008  RH  100%=      5-min Rain = 0
KHO1 081323Z 00007KT M01/M01 A3029 RMK A01 T10081008  RH  100%=      5-min Rain = 0
KHO1 081324Z 00008KT M01/M01 A3029 RMK A01 T10081008  RH  100%=      5-min Rain = 0
KHO1 081325Z 36007KT M01/M01 A3029 RMK A01 T10081008  RH  100%=      5-min Rain = 0
KHO1 081326Z 00008KT M01/M01 A3029 RMK A01 T10081008  RH  100%=      5-min Rain = 0
KHO1 081327Z 00007KT M01/M01 A3029 RMK A01 T10081008  RH  100%=      5-min Rain = 0
KHO1 081328Z 00008KT M01/M01 A3029 RMK A01 T10081008  RH  100%=      5-min Rain = 0
KHO1 081329Z 00009KT M01/M01 A3029 RMK A01 T10081008  RH  100%=      5-min Rain = 0
KHO1 081330Z 01008KT M01/M01 A3029 RMK A01 T10091009  RH  100%=      5-min Rain = 0
KHO1 081331Z 01006KT M01/M01 A3029 RMK A01 T10091009  RH  100%=      5-min Rain = 0
KHO1 081332Z 00008KT M01/M01 A3029 RMK A01 T10091009  RH  100%=      5-min Rain = 0
KHO1 081333Z 00008KT M01/M01 A3029 RMK A01 T10091009  RH  100%=      5-min Rain = 0
KHO1 081334Z 01008KT M01/M01 A3029 RMK A01 T10091009  RH  100%=      5-min Rain = 0
KHO1 081335Z 01008KT M01/M01 A3029 RMK A01 T10091009  RH  100%=      5-min Rain = 0
KHO1 081336Z 01007KT M01/M01 A3029 RMK A01 T10091009  RH  100%=      5-min Rain = 0
KHO1 081337Z 01006KT M01/M01 A3029 RMK A01 T10091009  RH  100%=      5-min Rain = 0
KHO1 081338Z 01007KT M01/M01 A3029 RMK A01 T10091009  RH  100%=      5-min Rain = 0
KHO1 081339Z 01008KT M01/M01 A3029 RMK A01 T10091009  RH  100%=      5-min Rain = 0
KHO1 081340Z 00008KT M01/M01 A3029 RMK A01 T10091009  RH  100%=      5-min Rain = 0
KHO1 081341Z 01008KT M01/M01 A3029 RMK A01 T10091009  RH  100%=      5-min Rain = 0
KHO1 081342Z 01007KT M01/M01 A3029 RMK A01 T10091009  RH  100%=      5-min Rain = 0
KHO1 081343Z 01008KT M01/M01 A3029 RMK A01 T10091009  RH  100%=      5-min Rain = 0
KHO1 081344Z 01008KT M01/M01 A3029 RMK A01 T10091009  RH  100%=      5-min Rain = 0
KHO1 081345Z 01007KT M01/M01 A3029 RMK A01 T10091009  RH  100%=      5-min Rain = 0
KHO1 081346Z 01006KT M01/M01 A3029 RMK A01 T10091009  RH  100%=      5-min Rain = 0
KHO1 081347Z 01008KT M01/M01 A3029 RMK A01 T10091009  RH  100%=      5-min Rain = 0
KHO1 081348Z 01006KT M01/M01 A3029 RMK A01 T10091009  RH  100%=      5-min Rain = 0
KHO1 081349Z 01006KT M01/M01 A3029 RMK A01 T10091009  RH  100%=      5-min Rain = 0
KHO1 081350Z 01009KT M01/M01 A3029 RMK A01 T10091009  RH  100%=      5-min Rain = 0
KHO1 081351Z 01007KT M01/M01 A3029 RMK A01 T10091009  RH  100%=      5-min Rain = 0
KHO1 081352Z 01008KT M01/M01 A303 RMK A01 T10091009  RH  100%=      5-min Rain = 0
KHO1 081353Z 01007KT M01/M01 A303 RMK A01 T10091009  RH  100%=      5-min Rain = 0
KHO1 081354Z 01007KT M01/M01 A303 RMK A01 T10091009  RH  100%=      5-min Rain = 0
KHO1 081355Z 01006KT M01/M01 A303 RMK A01 T10091009  RH  100%=      5-min Rain = 0
KHO1 081356Z 01007KT M01/M01 A303 RMK A01 T10091009  RH  100%=      5-min Rain = 0
KHO1 081357Z 00007KT M01/M01 A303 RMK A01 T10091009  RH  100%=      5-min Rain = 0
KHO1 081358Z 01006KT M01/M01 A303 RMK A01 T10091009  RH  100%=      5-min Rain = 0
KHO1 081359Z 00007KT M01/M01 A303 RMK A01 T10091009  RH  100%=      5-min Rain = 0
KHO1 081400Z 00007KT M01/M01 A303 RMK A01 T10091009  RH  100%=      5-min Rain = 0
KHO1 081401Z 00007KT M01/M01 A303 RMK A01 T10091009  RH  100%=      5-min Rain = 0
KHO1 081402Z 00007KT M01/M01 A303 RMK A01 T10091009  RH  100%=      5-min Rain = 0
KHO1 081403Z 36006KT M01/M01 A303 RMK A01 T10091009  RH  100%=      5-min Rain = 0
KHO1 081404Z 00006KT M01/M01 A303 RMK A01 T10091009  RH  100%=      5-min Rain = 0
KHO1 081405Z 36005KT M01/M01 A303 RMK A01 T10091009  RH  100%=      5-min Rain = 0
KHO1 081406Z 00005KT M01/M01 A303 RMK A01 T10091009  RH  100%=      5-min Rain = 0
KHO1 081407Z 00006KT M01/M01 A303 RMK A01 T10091009  RH  100%=      5-min Rain = 0
KHO1 081408Z 35007KT M01/M01 A303 RMK A01 T10081008  RH  100%=      5-min Rain = 0
KHO1 081409Z 35007KT M01/M01 A303 RMK A01 T10091009  RH  100%=      5-min Rain = 0
KHO1 081410Z 00008KT M01/M01 A303 RMK A01 T10081008  RH  100%=      5-min Rain = 0
KHO1 081411Z 00007KT M01/M01 A303 RMK A01 T10081009  RH  100%=      5-min Rain = 0
KHO1 081412Z 01007KT M01/M01 A303 RMK A01 T10081008  RH  100%=      5-min Rain = 0
KHO1 081413Z 00007KT M01/M01 A303 RMK A01 T10081008  RH  100%=      5-min Rain = 0
KHO1 081414Z 36007KT M01/M01 A303 RMK A01 T10091009  RH  100%=      5-min Rain = 0
KHO1 081415Z 00007KT M01/M01 A303 RMK A01 T10081008  RH  100%=      5-min Rain = 0
KHO1 081416Z 00007KT M01/M01 A303 RMK A01 T10091009  RH  100%=      5-min Rain = 0
KHO1 081417Z 00007KT M01/M01 A303 RMK A01 T10081008  RH  100%=      5-min Rain = 0
KHO1 081418Z 00009KT M01/M01 A303 RMK A01 T10081008  RH  100%=      5-min Rain = 0
KHO1 081419Z 36007KT M01/M01 A3031 RMK A01 T10091009  RH  100%=      5-min Rain = 0
KHO1 081420Z 00007KT M01/M01 A3031 RMK A01 T10081008  RH  100%=      5-min Rain = 0
KHO1 081421Z 00008KT M01/M01 A3031 RMK A01 T10081008  RH  100%=      5-min Rain = 0
KHO1 081422Z 01007KT M01/M01 A303 RMK A01 T10081008  RH  100%=      5-min Rain = 0
KHO1 081423Z 01008KT M01/M01 A303 RMK A01 T10081008  RH  100%=      5-min Rain = 0
KHO1 081424Z 01008KT M01/M01 A3031 RMK A01 T10081008  RH  100%=      5-min Rain = 0
KHO1 081425Z 01008KT M01/M01 A3031 RMK A01 T10081008  RH  100%=      5-min Rain = 0
KHO1 081426Z 01009KT M01/M01 A3031 RMK A01 T10081008  RH  100%=      5-min Rain = 0
KHO1 081427Z 01008KT M01/M01 A303 RMK A01 T10081008  RH  100%=      5-min Rain = 0
KHO1 081428Z 01009KT M01/M01 A303 RMK A01 T10081008  RH  100%=      5-min Rain = 0
KHO1 081429Z 01008KT M01/M01 A303 RMK A01 T10081008  RH  100%=      5-min Rain = 0
KHO1 081430Z 01008KT M01/M01 A3031 RMK A01 T10081008  RH  100%=      5-min Rain = 0
KHO1 081431Z 01008KT M01/M01 A3031 RMK A01 T10081008  RH  100%=      5-min Rain = 0
KHO1 081432Z 01007KT M01/M01 A3031 RMK A01 T10081008  RH  100%=      5-min Rain = 0
KHO1 081433Z 02007KT M01/M01 A3031 RMK A01 T10081008  RH  100%=      5-min Rain = 0
KHO1 081434Z 01008KT M01/M01 A3031 RMK A01 T10081008  RH  100%=      5-min Rain = 0
KHO1 081435Z 01008KT M01/M01 A3031 RMK A01 T10081008  RH  100%=      5-min Rain = 0
KHO1 081436Z 01006KT M01/M01 A3031 RMK A01 T10081008  RH  100%=      5-min Rain = 0
KHO1 081437Z 01007KT M01/M01 A3031 RMK A01 T10081008  RH  100%=      5-min Rain = 0
KHO1 081438Z 01007KT M01/M01 A3031 RMK A01 T10081008  RH  100%=      5-min Rain = 0
KHO1 081439Z 01006KT M01/M01 A3031 RMK A01 T10081008  RH  100%=      5-min Rain = 0
KHO1 081440Z 01008KT M01/M01 A3031 RMK A01 T10071007  RH  100%=      5-min Rain = 0
KHO1 081441Z 01007KT M01/M01 A3031 RMK A01 T10071007  RH  100%=      5-min Rain = 0
KHO1 081442Z 01007KT M01/M01 A3031 RMK A01 T10071007  RH  100%=      5-min Rain = 0
KHO1 081443Z 01008KT M01/M01 A3031 RMK A01 T10071007  RH  100%=      5-min Rain = 0
KHO1 081444Z 01009KT M01/M01 A3031 RMK A01 T10071007  RH  100%=      5-min Rain = 0
KHO1 081445Z 01007KT M01/M01 A3031 RMK A01 T10071007  RH  100%=      5-min Rain = 0
KHO1 081446Z 01007KT M01/M01 A3031 RMK A01 T10071007  RH  100%=      5-min Rain = 0
KHO1 081447Z 02008KT M01/M01 A3031 RMK A01 T10071007  RH  100%=      5-min Rain = 0
KHO1 081448Z 02007KT M01/M01 A3031 RMK A01 T10071007  RH  100%=      5-min Rain = 0
KHO1 081449Z 01006KT M01/M01 A3031 RMK A01 T10071007  RH  100%=      5-min Rain = 0
KHO1 081450Z 01006KT M01/M01 A3031 RMK A01 T10071007  RH  100%=      5-min Rain = 0
KHO1 081451Z 02006KT M01/M01 A3031 RMK A01 T10071007  RH  100%=      5-min Rain = 0
KHO1 081452Z 02007KT M01/M01 A3031 RMK A01 T10071007  RH  100%=      5-min Rain = 0
KHO1 081453Z 02008KT M01/M01 A3031 RMK A01 T10071007  RH  100%=      5-min Rain = 0
KHO1 081454Z 02009KT M01/M01 A3031 RMK A01 T10071007  RH  100%=      5-min Rain = 0
KHO1 081455Z 01007KT M01/M01 A3031 RMK A01 T10071007  RH  100%=      5-min Rain = 0
KHO1 081456Z 02007KT M01/M01 A3031 RMK A01 T10071007  RH  100%=      5-min Rain = 0
KHO1 081457Z 01007KT M01/M01 A3031 RMK A01 T10071007  RH  100%=      5-min Rain = 0
KHO1 081458Z 02007KT M01/M01 A3031 RMK A01 T10061006  RH  100%=      5-min Rain = 0
KHO1 081459Z 01007KT M01/M01 A3031 RMK A01 T10061006  RH  100%=      5-min Rain = 0
KHO1 081500Z 01007KT M01/M01 A3031 RMK A01 T10061006  RH  100%=      5-min Rain = 0
KHO1 081501Z 02006KT M01/M01 A3031 RMK A01 T10061006  RH  100%=      5-min Rain = 0
KHO1 081502Z 01007KT M01/M01 A3032 RMK A01 T10061006  RH  100%=      5-min Rain = 0
KHO1 081503Z 01009KT M01/M01 A3031 RMK A01 T10061006  RH  100%=      5-min Rain = 0
KHO1 081504Z 02008KT M01/M01 A3032 RMK A01 T10061006  RH  100%=      5-min Rain = 0
KHO1 081505Z 01009KT M01/M01 A3031 RMK A01 T10061006  RH  100%=      5-min Rain = 0
KHO1 081506Z 01007KT M01/M01 A3032 RMK A01 T10061006  RH  100%=      5-min Rain = 0
KHO1 081507Z 01007KT M01/M01 A3032 RMK A01 T10061006  RH  100%=      5-min Rain = 0
KHO1 081508Z 02008KT M01/M01 A3032 RMK A01 T10051005  RH  100%=      5-min Rain = 0
KHO1 081509Z 02009KT M01/M01 A3032 RMK A01 T10051005  RH  100%=      5-min Rain = 0
KHO1 081510Z 02008KT M01/M01 A3032 RMK A01 T10051005  RH  100%=      5-min Rain = 0
KHO1 081511Z 02008KT M01/M01 A3032 RMK A01 T10051005  RH  100%=      5-min Rain = 0
KHO1 081512Z 02009KT M01/M01 A3032 RMK A01 T10051005  RH  100%=      5-min Rain = 0
KHO1 081513Z 02008KT M01/M01 A3032 RMK A01 T10051005  RH  100%=      5-min Rain = 0
KHO1 081514Z 02008KT M01/M01 A3032 RMK A01 T10051005  RH  100%=      5-min Rain = 0
KHO1 081515Z 02007KT M01/M01 A3032 RMK A01 T10051005  RH  100%=      5-min Rain = 0
KHO1 081516Z 02007KT M00/M00 A3032 RMK A01 T10041004  RH  100%=      5-min Rain = 0
KHO1 081517Z 02006KT M00/M00 A3032 RMK A01 T10041004  RH  100%=      5-min Rain = 0
KHO1 081518Z 02005KT M00/M00 A3032 RMK A01 T10041004  RH  100%=      5-min Rain = 0
KHO1 081519Z 02006KT M00/M00 A3032 RMK A01 T10041004  RH  100%=      5-min Rain = 0
KHO1 081520Z 02007KT M00/M00 A3032 RMK A01 T10041004  RH  100%=      5-min Rain = 0
KHO1 081521Z 02008KT M00/M00 A3032 RMK A01 T10041004  RH  100%=      5-min Rain = 0
KHO1 081522Z 02009KT M00/M00 A3032 RMK A01 T10041004  RH  100%=      5-min Rain = 0
KHO1 081523Z 02007KT M00/M00 A3032 RMK A01 T10041004  RH  100%=      5-min Rain = 0
KHO1 081524Z 02008KT M00/M00 A3032 RMK A01 T10041004  RH  100%=      5-min Rain = 0
KHO1 081525Z 02007KT M00/M00 A3032 RMK A01 T10041004  RH  100%=      5-min Rain = 0
KHO1 081526Z 02005KT M00/M00 A3032 RMK A01 T10031003  RH  100%=      5-min Rain = 0
KHO1 081527Z 03008KT M00/M00 A3032 RMK A01 T10031003  RH  100%=      5-min Rain = 0
KHO1 081528Z 02008KT M00/M00 A3032 RMK A01 T10031003  RH  100%=      5-min Rain = 0
KHO1 081529Z 02007KT M00/M00 A3032 RMK A01 T10031003  RH  100%=      5-min Rain = 0
KHO1 081530Z 02009KT M00/M00 A3032 RMK A01 T10031003  RH  100%=      5-min Rain = 0
KHO1 081531Z 02008KT M00/M00 A3032 RMK A01 T10031003  RH  100%=      5-min Rain = 0
KHO1 081532Z 02006KT M00/M00 A3032 RMK A01 T10031003  RH  100%=      5-min Rain = 0
KHO1 081533Z 02007KT M00/M00 A3032 RMK A01 T10031003  RH  100%=      5-min Rain = 0
KHO1 081534Z 02009KT M00/M00 A3032 RMK A01 T10031003  RH  100%=      5-min Rain = 0
KHO1 081535Z 02007KT M00/M00 A3032 RMK A01 T10031003  RH  100%=      5-min Rain = 0
KHO1 081536Z 03007KT M00/M00 A3032 RMK A01 T10021002  RH  100%=      5-min Rain = 0
KHO1 081537Z 02007KT M00/M00 A3032 RMK A01 T10021002  RH  100%=      5-min Rain = 0
KHO1 081538Z 02006KT 00/00 A3032 RMK A01 T00-000-0  RH  100%=      5-min Rain = 0
KHO1 081539Z 02007KT 00/00 A3033 RMK A01 T00020002  RH  100%=      5-min Rain = 0
KHO1 081540Z 02007KT 00/00 A3033 RMK A01 T00030003  RH  100%=      5-min Rain = 0
KHO1 081541Z 02005KT 01/01 A3033 RMK A01 T00050005  RH  100%=      5-min Rain = 0
KHO1 081542Z 01007KT 01/01 A3033 RMK A01 T00050005  RH  100%=      5-min Rain = 0
KHO1 081543Z 02007KT 00/00 A3033 RMK A01 T00040004  RH  100%=      5-min Rain = 0
KHO1 081544Z 01006KT 00/00 A3033 RMK A01 T00030003  RH  100%=      5-min Rain = 0
KHO1 081545Z 01007KT 00/00 A3033 RMK A01 T00030003  RH  100%=      5-min Rain = 0
KHO1 081546Z 02007KT 00/00 A3033 RMK A01 T00020002  RH  100%=      5-min Rain = 0
KHO1 081547Z 01006KT 00/00 A3033 RMK A01 T00020002  RH  100%=      5-min Rain = 0
KHO1 081548Z 01006KT 00/00 A3033 RMK A01 T00020002  RH  100%=      5-min Rain = 0
KHO1 081549Z 02008KT 00/00 A3033 RMK A01 T00020002  RH  100%=      5-min Rain = 0
KHO1 081550Z 02006KT 00/00 A3033 RMK A01 T00010001  RH  100%=      5-min Rain = 0
KHO1 081551Z 01007KT 00/00 A3033 RMK A01 T00010001  RH  100%=      5-min Rain = 0
KHO1 081552Z 01006KT 00/00 A3033 RMK A01 T00020002  RH  100%=      5-min Rain = 0
KHO1 081553Z 01007KT 00/00 A3033 RMK A01 T00010001  RH  100%=      5-min Rain = 0
KHO1 081554Z 01008KT 00/00 A3033 RMK A01 T00010001  RH  100%=      5-min Rain = 0
KHO1 081555Z 02008KT 00/00 A3033 RMK A01 T00010001  RH  100%=      5-min Rain = 0
KHO1 081556Z 02007KT 00/00 A3033 RMK A01 T00010001  RH  100%=      5-min Rain = 0
KHO1 081557Z 02007KT 00/00 A3033 RMK A01 T00020002  RH  100%=      5-min Rain = 0
KHO1 081558Z 02006KT 00/00 A3033 RMK A01 T00020002  RH  100%=      5-min Rain = 0
KHO1 081559Z 01005KT 00/00 A3033 RMK A01 T00030003  RH  100%=      5-min Rain = 0
KHO1 081600Z 00006KT 00/00 A3033 RMK A01 T00030003  RH  100%=      5-min Rain = 0
KHO1 081601Z 01006KT 00/00 A3033 RMK A01 T00030003  RH  100%=      5-min Rain = 0
KHO1 081602Z 02007KT 00/00 A3033 RMK A01 T00020002  RH  100%=      5-min Rain = 0
KHO1 081603Z 02006KT 00/00 A3033 RMK A01 T00020002  RH  100%=      5-min Rain = 0
KHO1 081604Z 01006KT 00/00 A3033 RMK A01 T00020002  RH  100%=      5-min Rain = 0
KHO1 081605Z 00006KT 00/00 A3033 RMK A01 T00030003  RH  100%=      5-min Rain = 0
KHO1 081606Z 01006KT 00/00 A3033 RMK A01 T00030003  RH  100%=      5-min Rain = 0
KHO1 081607Z 02006KT 00/00 A3033 RMK A01 T00030003  RH  100%=      5-min Rain = 0
KHO1 081608Z 02007KT 00/00 A3033 RMK A01 T00030003  RH  100%=      5-min Rain = 0
KHO1 081609Z 02008KT 00/00 A3033 RMK A01 T00020002  RH  100%=      5-min Rain = 0
KHO1 081610Z 02008KT 00/00 A3033 RMK A01 T00020002  RH  100%=      5-min Rain = 0
KHO1 081611Z 02008KT 00/00 A3033 RMK A01 T00020002  RH  100%=      5-min Rain = 0
KHO1 081612Z 03008KT 00/00 A3033 RMK A01 T00020002  RH  100%=      5-min Rain = 0
KHO1 081613Z 03007KT 00/00 A3033 RMK A01 T00020002  RH  100%=      5-min Rain = 0
KHO1 081614Z 03007KT 00/00 A3033 RMK A01 T00020002  RH  100%=      5-min Rain = 0
KHO1 081615Z 02008KT 00/00 A3033 RMK A01 T00020002  RH  100%=      5-min Rain = 0
KHO1 081616Z 02007KT 00/00 A3033 RMK A01 T00020002  RH  100%=      5-min Rain = 0
KHO1 081617Z 02007KT 00/00 A3033 RMK A01 T00020002  RH  100%=      5-min Rain = 0
KHO1 081618Z 02009KT 00/00 A3033 RMK A01 T00020002  RH  100%=      5-min Rain = 0
KHO1 081619Z 03008KT 00/00 A3033 RMK A01 T00020002  RH  100%=      5-min Rain = 0
KHO1 081620Z 02006KT 00/00 A3033 RMK A01 T00020002  RH  100%=      5-min Rain = 0
KHO1 081621Z 02006KT 00/00 A3033 RMK A01 T00020002  RH  100%=      5-min Rain = 0
KHO1 081622Z 02006KT 00/00 A3033 RMK A01 T00020002  RH  100%=      5-min Rain = 0
KHO1 081623Z 02006KT 00/00 A3034 RMK A01 T00030003  RH  100%=      5-min Rain = 0
KHO1 081624Z 01006KT 00/00 A3034 RMK A01 T00040004  RH  100%=      5-min Rain = 0
KHO1 081625Z 01006KT 00/00 A3034 RMK A01 T00040004  RH  100%=      5-min Rain = 0
KHO1 081626Z 02008KT 00/00 A3034 RMK A01 T00040004  RH  100%=      5-min Rain = 0
KHO1 081627Z 02008KT 00/00 A3034 RMK A01 T00030003  RH  100%=      5-min Rain = 0
KHO1 081628Z 02007KT 00/00 A3034 RMK A01 T00020002  RH  100%=      5-min Rain = 0
KHO1 081629Z 02005KT 00/00 A3034 RMK A01 T00020002  RH  100%=      5-min Rain = 0
KHO1 081630Z 02007KT 00/00 A3034 RMK A01 T00020002  RH  100%=      5-min Rain = 0
KHO1 081631Z 02007KT 00/00 A3034 RMK A01 T00020002  RH  100%=      5-min Rain = 0
KHO1 081632Z 02007KT 00/00 A3034 RMK A01 T00020002  RH  100%=      5-min Rain = 0
KHO1 081633Z 02007KT 00/00 A3034 RMK A01 T00020002  RH  100%=      5-min Rain = 0
KHO1 081634Z 02007KT 00/00 A3034 RMK A01 T00020002  RH  100%=      5-min Rain = 0
KHO1 081635Z 02008KT 00/00 A3034 RMK A01 T00020002  RH  100%=      5-min Rain = 0
KHO1 081636Z 03008KT 00/00 A3034 RMK A01 T00010001  RH  100%=      5-min Rain = 0
KHO1 081637Z 03007KT 00/00 A3034 RMK A01 T00010001  RH  100%=      5-min Rain = 0
KHO1 081638Z 03007KT 00/00 A3034 RMK A01 T00020002  RH  100%=      5-min Rain = 0
KHO1 081639Z 02007KT 00/00 A3034 RMK A01 T00020002  RH  100%=      5-min Rain = 0
KHO1 081640Z 02006KT 00/00 A3034 RMK A01 T00020002  RH  100%=      5-min Rain = 0
KHO1 081641Z 02006KT 00/00 A3034 RMK A01 T00030003  RH  100%=      5-min Rain = 0
KHO1 081642Z 02006KT 00/00 A3034 RMK A01 T00030003  RH  100%=      5-min Rain = 0
KHO1 081643Z 02006KT 00/00 A3034 RMK A01 T00030003  RH  100%=      5-min Rain = 0
KHO1 081644Z 02006KT 00/00 A3034 RMK A01 T00030003  RH  100%=      5-min Rain = 0
KHO1 081645Z 03005KT 00/00 A3034 RMK A01 T00030003  RH  100%=      5-min Rain = 0
KHO1 081646Z 03005KT 00/00 A3034 RMK A01 T00030003  RH  100%=      5-min Rain = 0
KHO1 081647Z 02005KT 00/00 A3034 RMK A01 T00040004  RH  100%=      5-min Rain = 0
KHO1 081648Z 03006KT 00/00 A3034 RMK A01 T00040004  RH  100%=      5-min Rain = 0
KHO1 081649Z 02005KT 00/00 A3034 RMK A01 T00040004  RH  100%=      5-min Rain = 0
KHO1 081650Z 02006KT 00/00 A3034 RMK A01 T00040004  RH  100%=      5-min Rain = 0
KHO1 081651Z 01005KT 00/00 A3034 RMK A01 T00040004  RH  100%=      5-min Rain = 0
KHO1 081652Z 01006KT 00/00 A3034 RMK A01 T00040004  RH  100%=      5-min Rain = 0
KHO1 081653Z 01007KT 00/00 A3034 RMK A01 T00040004  RH  100%=      5-min Rain = 0
KHO1 081654Z 02005KT 00/00 A3035 RMK A01 T00040004  RH  100%=      5-min Rain = 0
KHO1 081655Z 02004KT 00/00 A3034 RMK A01 T00040004  RH  100%=      5-min Rain = 0
KHO1 081656Z 02004KT 00/00 A3034 RMK A01 T00040004  RH  100%=      5-min Rain = 0
KHO1 081657Z 02006KT 00/00 A3034 RMK A01 T00040004  RH  100%=      5-min Rain = 0
KHO1 081658Z 02006KT 00/00 A3034 RMK A01 T00030003  RH  100%=      5-min Rain = 0
KHO1 081659Z 02005KT 00/00 A3034 RMK A01 T00030003  RH  100%=      5-min Rain = 0
KHO1 081700Z 01005KT 00/00 A3035 RMK A01 T00040004  RH  100%=      5-min Rain = 0
KHO1 081701Z 01005KT 00/00 A3035 RMK A01 T00040004  RH  100%=      5-min Rain = 0
KHO1 081702Z 01005KT 00/00 A3035 RMK A01 T00040004  RH  100%=      5-min Rain = 0
KHO1 081703Z 01006KT 00/00 A3035 RMK A01 T00040004  RH  100%=      5-min Rain = 0
KHO1 081704Z 00005KT 00/00 A3035 RMK A01 T00040004  RH  100%=      5-min Rain = 0
KHO1 081705Z 01006KT 00/00 A3035 RMK A01 T00040004  RH  100%=      5-min Rain = 0
KHO1 081706Z 01005KT 00/00 A3035 RMK A01 T00030003  RH  100%=      5-min Rain = 0
KHO1 081707Z 02006KT 00/00 A3035 RMK A01 T00030003  RH  100%=      5-min Rain = 0
KHO1 081708Z 02006KT 00/00 A3035 RMK A01 T00030003  RH  100%=      5-min Rain = 0.01
KHO1 081709Z 01006KT 00/00 A3035 RMK A01 T00040004  RH  100%=      5-min Rain = 0
KHO1 081710Z 00005KT 00/00 A3035 RMK A01 T00040004  RH  100%=      5-min Rain = 0
KHO1 081711Z 01006KT 00/00 A3035 RMK A01 T00040004  RH  100%=      5-min Rain = 0
KHO1 081712Z 01006KT 00/00 A3034 RMK A01 T00040004  RH  100%=      5-min Rain = 0.01
KHO1 081713Z 01005KT 00/00 A3034 RMK A01 T00040004  RH  100%=      5-min Rain = 0
KHO1 081714Z 01006KT 01/01 A3034 RMK A01 T00050005  RH  100%=      5-min Rain = 0
KHO1 081715Z 02005KT 01/01 A3034 RMK A01 T00050005  RH  100%=      5-min Rain = 0
KHO1 081716Z 01004KT 01/01 A3034 RMK A01 T00050005  RH  100%=      5-min Rain = 0.01
KHO1 081717Z 36006KT 01/01 A3034 RMK A01 T00060006  RH  100%=      5-min Rain = 0
KHO1 081718Z 00006KT 01/01 A3034 RMK A01 T00050005  RH  100%=      5-min Rain = 0
KHO1 081719Z 00007KT 01/01 A3034 RMK A01 T00050005  RH  100%=      5-min Rain = 0
KHO1 081720Z 01006KT 01/01 A3034 RMK A01 T00050005  RH  100%=      5-min Rain = 0
KHO1 081721Z 01007KT 00/00 A3034 RMK A01 T00040004  RH  100%=      5-min Rain = 0.01
KHO1 081722Z 00006KT 00/00 A3034 RMK A01 T00040004  RH  100%=      5-min Rain = 0
KHO1 081723Z 01006KT 00/00 A3034 RMK A01 T00040004  RH  100%=      5-min Rain = 0
KHO1 081724Z 02007KT 00/00 A3034 RMK A01 T00040004  RH  100%=      5-min Rain = 0.01
KHO1 081725Z 03006KT 00/00 A3034 RMK A01 T00040004  RH  100%=      5-min Rain = 0
KHO1 081726Z 02006KT 00/00 A3034 RMK A01 T00040004  RH  100%=      5-min Rain = 0
KHO1 081727Z 02005KT 00/00 A3034 RMK A01 T00040004  RH  100%=      5-min Rain = 0
KHO1 081728Z 01005KT 01/01 A3034 RMK A01 T00050005  RH  100%=      5-min Rain = 0.01
KHO1 081729Z 01004KT 01/01 A3034 RMK A01 T00060006  RH  100%=      5-min Rain = 0
KHO1 081730Z 02004KT 01/01 A3034 RMK A01 T00060006  RH  100%=      5-min Rain = 0
KHO1 081731Z 01005KT 01/01 A3034 RMK A01 T00060006  RH  100%=      5-min Rain = 0
KHO1 081732Z 01004KT 01/01 A3034 RMK A01 T00060006  RH  100%=      5-min Rain = 0.01
KHO1 081733Z 01005KT 01/01 A3034 RMK A01 T00060006  RH  100%=      5-min Rain = 0
KHO1 081734Z 02005KT 01/01 A3034 RMK A01 T00060006  RH  100%=      5-min Rain = 0
KHO1 081735Z 02006KT 01/01 A3034 RMK A01 T00060006  RH  100%=      5-min Rain = 0
KHO1 081736Z 00006KT 01/01 A3034 RMK A01 T00060006  RH  100%=      5-min Rain = 0.01
KHO1 081737Z 01007KT 01/01 A3034 RMK A01 T00050005  RH  100%=      5-min Rain = 0
KHO1 081738Z 02005KT 01/01 A3034 RMK A01 T00050005  RH  100%=      5-min Rain = 0
KHO1 081739Z 02006KT 01/01 A3034 RMK A01 T00050005  RH  100%=      5-min Rain = 0
KHO1 081740Z 02005KT 01/01 A3034 RMK A01 T00060006  RH  100%=      5-min Rain = 0.01
KHO1 081741Z 01006KT 01/01 A3034 RMK A01 T00060006  RH  100%=      5-min Rain = 0
KHO1 081742Z 02006KT 01/01 A3034 RMK A01 T00060006  RH  100%=      5-min Rain = 0
KHO1 081743Z 02006KT 01/01 A3034 RMK A01 T00060006  RH  100%=      5-min Rain = 0
KHO1 081744Z 01005KT 01/01 A3034 RMK A01 T00060006  RH  100%=      5-min Rain = 0.01
KHO1 081745Z 02004KT 01/01 A3034 RMK A01 T00060006  RH  100%=      5-min Rain = 0
KHO1 081746Z 02005KT 01/01 A3034 RMK A01 T00060006  RH  100%=      5-min Rain = 0
KHO1 081747Z 02006KT 01/01 A3034 RMK A01 T00060006  RH  100%=      5-min Rain = 0
KHO1 081748Z 03006KT 01/01 A3034 RMK A01 T00060006  RH  100%=      5-min Rain = 0.01
KHO1 081749Z 02005KT 01/01 A3034 RMK A01 T00050005  RH  100%=      5-min Rain = 0
KHO1 081750Z 02007KT 01/01 A3034 RMK A01 T00050006  RH  100%=      5-min Rain = 0
KHO1 081751Z 01006KT 01/01 A3034 RMK A01 T00050005  RH  100%=      5-min Rain = 0
KHO1 081752Z 02006KT 01/01 A3034 RMK A01 T00050005  RH  100%=      5-min Rain = 0
KHO1 081753Z 03007KT 01/01 A3034 RMK A01 T00060006  RH  100%=      5-min Rain = 0.01
KHO1 081754Z 02005KT 01/01 A3034 RMK A01 T00050005  RH  100%=      5-min Rain = 0
KHO1 081755Z 03004KT 01/01 A3034 RMK A01 T00060006  RH  100%=      5-min Rain = 0
KHO1 081756Z 02004KT 01/01 A3034 RMK A01 T00070007  RH  100%=      5-min Rain = 0
KHO1 081757Z 02004KT 01/01 A3033 RMK A01 T00080008  RH  100%=      5-min Rain = 0.01
KHO1 081758Z 01006KT 01/01 A3033 RMK A01 T00080008  RH  100%=      5-min Rain = 0
KHO1 081759Z 02006KT 01/01 A3033 RMK A01 T00080008  RH  100%=      5-min Rain = 0
KHO1 081800Z 03006KT 01/01 A3033 RMK A01 T00060006  RH  100%=      5-min Rain = 0
KHO1 081801Z 01005KT 00/00 A3033 RMK A01 T00040004  RH  100%=      5-min Rain = 0.01
KHO1 081802Z 01006KT 00/00 A3033 RMK A01 T00040004  RH  100%=      5-min Rain = 0
KHO1 081803Z 02006KT 00/00 A3033 RMK A01 T00030003  RH  100%=      5-min Rain = 0
KHO1 081804Z 02004KT 00/00 A3033 RMK A01 T00030003  RH  100%=      5-min Rain = 0
KHO1 081805Z 03004KT 01/01 A3033 RMK A01 T00050005  RH  100%=      5-min Rain = 0.01
KHO1 081806Z 02005KT 01/01 A3033 RMK A01 T00060006  RH  100%=      5-min Rain = 0
KHO1 081807Z 01004KT 01/01 A3033 RMK A01 T00060006  RH  100%=      5-min Rain = 0
KHO1 081808Z 02005KT 01/01 A3033 RMK A01 T00070007  RH  100%=      5-min Rain = 0.01
KHO1 081809Z 02007KT 01/01 A3033 RMK A01 T00060006  RH  100%=      5-min Rain = 0
KHO1 081810Z 02007KT 01/01 A3033 RMK A01 T00050005  RH  100%=      5-min Rain = 0
KHO1 081811Z 02007KT 00/00 A3033 RMK A01 T00040004  RH  100%=      5-min Rain = 0
KHO1 081812Z 02006KT 00/00 A3033 RMK A01 T00040004  RH  100%=      5-min Rain = 0.01
KHO1 081813Z 02005KT 00/00 A3033 RMK A01 T00040004  RH  100%=      5-min Rain = 0
KHO1 081814Z 02005KT 01/01 A3033 RMK A01 T00050005  RH  100%=      5-min Rain = 0
KHO1 081815Z 02006KT 01/01 A3033 RMK A01 T00050005  RH  100%=      5-min Rain = 0
KHO1 081816Z 02007KT 00/00 A3033 RMK A01 T00040004  RH  100%=      5-min Rain = 0.01
KHO1 081817Z 02006KT 01/01 A3033 RMK A01 T00050005  RH  100%=      5-min Rain = 0
KHO1 081818Z 02005KT 01/01 A3032 RMK A01 T00050005  RH  100%=      5-min Rain = 0
KHO1 081819Z 02006KT 01/01 A3032 RMK A01 T00050005  RH  100%=      5-min Rain = 0
KHO1 081820Z 02006KT 01/01 A3032 RMK A01 T00050005  RH  100%=      5-min Rain = 0
KHO1 081821Z 03006KT 01/01 A3032 RMK A01 T00050005  RH  100%=      5-min Rain = 0.01
KHO1 081822Z 02007KT 01/01 A3032 RMK A01 T00050005  RH  100%=      5-min Rain = 0
KHO1 081823Z 01007KT 01/01 A3032 RMK A01 T00050005  RH  100%=      5-min Rain = 0
KHO1 081824Z 01006KT 01/01 A3032 RMK A01 T00050005  RH  100%=      5-min Rain = 0
KHO1 081825Z 02005KT 01/01 A3032 RMK A01 T00050005  RH  100%=      5-min Rain = 0.01
KHO1 081826Z 00004KT 01/01 A3032 RMK A01 T00060006  RH  100%=      5-min Rain = 0
KHO1 081827Z 35004KT 01/01 A3032 RMK A01 T00070007  RH  100%=      5-min Rain = 0
KHO1 081828Z 36005KT 01/01 A3032 RMK A01 T00070007  RH  100%=      5-min Rain = 0
KHO1 081829Z 00006KT 01/01 A3032 RMK A01 T00080007  RH  100%=      5-min Rain = 0.01
KHO1 081830Z 01006KT 01/01 A3032 RMK A01 T00070006  RH  099%=      5-min Rain = 0
KHO1 081831Z 01006KT 01/01 A3032 RMK A01 T00060005  RH  099%=      5-min Rain = 0.01
KHO1 081832Z 00006KT 01/01 A3032 RMK A01 T00060005  RH  099%=      5-min Rain = 0
KHO1 081833Z 01005KT 01/00 A3032 RMK A01 T00060004  RH  098%=      5-min Rain = 0
KHO1 081834Z 01006KT 01/01 A3032 RMK A01 T00070005  RH  099%=      5-min Rain = 0.01
KHO1 081835Z 02007KT 01/01 A3032 RMK A01 T00080005  RH  098%=      5-min Rain = 0
KHO1 081836Z 02006KT 01/01 A3032 RMK A01 T00070005  RH  098%=      5-min Rain = 0.01
KHO1 081837Z 03006KT 01/01 A3032 RMK A01 T00080005  RH  098%=      5-min Rain = 0
KHO1 081838Z 03007KT 01/01 A3032 RMK A01 T00090007  RH  098%=      5-min Rain = 0
KHO1 081839Z 02006KT 01/01 A3032 RMK A01 T00090006  RH  098%=      5-min Rain = 0.01
KHO1 081840Z 03006KT 01/01 A3032 RMK A01 T00080005  RH  098%=      5-min Rain = 0
KHO1 081841Z 02005KT 01/00 A3032 RMK A01 T00080004  RH  097%=      5-min Rain = 0.01
KHO1 081842Z 02006KT 01/00 A3032 RMK A01 T00080004  RH  097%=      5-min Rain = 0
KHO1 081843Z 02006KT 01/01 A3032 RMK A01 T00090006  RH  098%=      5-min Rain = 0
KHO1 081844Z 01007KT 01/01 A3032 RMK A01 T00100006  RH  098%=      5-min Rain = 0.01
KHO1 081845Z 01005KT 01/00 A3032 RMK A01 T00090004  RH  097%=      5-min Rain = 0
KHO1 081846Z 01007KT 01/00 A3031 RMK A01 T00090004  RH  097%=      5-min Rain = 0
KHO1 081847Z 01007KT 01/01 A3031 RMK A01 T00100005  RH  097%=      5-min Rain = 0.01
KHO1 081848Z 02008KT 01/01 A3031 RMK A01 T00090005  RH  097%=      5-min Rain = 0
KHO1 081849Z 02007KT 01/00 A3031 RMK A01 T00080002  RH  096%=      5-min Rain = 0
KHO1 081850Z 02006KT 01/00 A3031 RMK A01 T00070000  RH  095%=      5-min Rain = 0.01
KHO1 081851Z 03004KT 01/00 A3031 RMK A01 T000700-0  RH  095%=      5-min Rain = 0
KHO1 081852Z 02005KT 01/00 A3031 RMK A01 T00080003  RH  096%=      5-min Rain = 0
KHO1 081853Z 01004KT 01/00 A3031 RMK A01 T00080003  RH  096%=      5-min Rain = 0.01
KHO1 081854Z 02006KT 01/01 A3031 RMK A01 T00100005  RH  097%=      5-min Rain = 0
KHO1 081855Z 03006KT 01/00 A3031 RMK A01 T00100004  RH  096%=      5-min Rain = 0
KHO1 081856Z 03005KT 01/00 A3031 RMK A01 T00090004  RH  096%=      5-min Rain = 0
KHO1 081857Z 02005KT 01/00 A3031 RMK A01 T00100004  RH  096%=      5-min Rain = 0.01
KHO1 081858Z 01005KT 01/00 A3031 RMK A01 T00100003  RH  096%=      5-min Rain = 0
KHO1 081859Z 02005KT 01/01 A3031 RMK A01 T00100005  RH  096%=      5-min Rain = 0
KHO1 081900Z 02005KT 01/01 A3031 RMK A01 T00110005  RH  096%=      5-min Rain = 0
KHO1 081901Z 01004KT 01/01 A3031 RMK A01 T00120008  RH  097%=      5-min Rain = 0.01
KHO1 081902Z 02005KT 01/01 A3031 RMK A01 T00130007  RH  096%=      5-min Rain = 0
KHO1 081903Z 01005KT 01/00 A3031 RMK A01 T00110003  RH  095%=      5-min Rain = 0
KHO1 081904Z 01005KT 01/00 A3031 RMK A01 T00100002  RH  094%=      5-min Rain = 0
KHO1 081905Z 02004KT 01/00 A3031 RMK A01 T00100003  RH  095%=      5-min Rain = 0.01
KHO1 081906Z 01006KT 01/00 A3031 RMK A01 T00110004  RH  095%=      5-min Rain = 0
KHO1 081907Z 36005KT 01/00 A3031 RMK A01 T00110004  RH  095%=      5-min Rain = 0
KHO1 081908Z 00004KT 01/00 A3031 RMK A01 T00110003  RH  094%=      5-min Rain = 0
KHO1 081909Z 01005KT 01/00 A3031 RMK A01 T00110003  RH  094%=      5-min Rain = 0.01
KHO1 081910Z 03005KT 01/01 A303 RMK A01 T00120006  RH  096%=      5-min Rain = 0
KHO1 081911Z 02004KT 01/01 A303 RMK A01 T00130007  RH  096%=      5-min Rain = 0
KHO1 081912Z 34006KT 01/01 A303 RMK A01 T00130007  RH  096%=      5-min Rain = 0
KHO1 081913Z 34006KT 01/00 A303 RMK A01 T00130004  RH  094%=      5-min Rain = 0
KHO1 081914Z 35005KT 01/00 A303 RMK A01 T00110003  RH  094%=      5-min Rain = 0
KHO1 081915Z 00004KT 01/00 A303 RMK A01 T00110002  RH  094%=      5-min Rain = 0.01
KHO1 081916Z 00005KT 01/00 A303 RMK A01 T00120004  RH  095%=      5-min Rain = 0
KHO1 081917Z 34006KT 01/01 A303 RMK A01 T00130006  RH  095%=      5-min Rain = 0
KHO1 081918Z 35005KT 01/01 A303 RMK A01 T00130006  RH  095%=      5-min Rain = 0
KHO1 081919Z 34005KT 01/01 A303 RMK A01 T00130005  RH  095%=      5-min Rain = 0
KHO1 081920Z 34005KT 01/00 A303 RMK A01 T00120002  RH  093%=      5-min Rain = 0.01
KHO1 081921Z 34004KT 01/00 A303 RMK A01 T00110001  RH  093%=      5-min Rain = 0
KHO1 081922Z 33004KT 01/00 A303 RMK A01 T00120003  RH  094%=      5-min Rain = 0
KHO1 081923Z 34004KT 01/00 A303 RMK A01 T00120004  RH  094%=      5-min Rain = 0
KHO1 081924Z 34004KT 01/01 A303 RMK A01 T00130005  RH  094%=      5-min Rain = 0
KHO1 081925Z 34005KT 01/00 A303 RMK A01 T00130004  RH  094%=      5-min Rain = 0
KHO1 081926Z 00005KT 01/01 A303 RMK A01 T00130005  RH  094%=      5-min Rain = 0
KHO1 081927Z 00005KT 01/00 A303 RMK A01 T00130004  RH  094%=      5-min Rain = 0.01
KHO1 081928Z 00004KT 01/00 A3029 RMK A01 T001200-0  RH  092%=      5-min Rain = 0
KHO1 081929Z 00004KT 01/M00 A3029 RMK A01 T00111002  RH  092%=      5-min Rain = 0
KHO1 081930Z 35004KT 01/00 A3029 RMK A01 T00110001  RH  093%=      5-min Rain = 0
KHO1 081931Z 34003KT 01/00 A3029 RMK A01 T00130003  RH  093%=      5-min Rain = 0
KHO1 081932Z 33004KT 02/01 A3029 RMK A01 T00150007  RH  094%=      5-min Rain = 0
KHO1 081933Z 34004KT 02/01 A3029 RMK A01 T00180011  RH  095%=      5-min Rain = 0.01
KHO1 081934Z 35004KT 02/01 A3029 RMK A01 T00190009  RH  093%=      5-min Rain = 0
KHO1 081935Z 35003KT 02/01 A3029 RMK A01 T00190007  RH  092%=      5-min Rain = 0
KHO1 081936Z 32004KT 02/01 A3029 RMK A01 T00190006  RH  091%=      5-min Rain = 0
KHO1 081937Z 33005KT 02/01 A3029 RMK A01 T00190005  RH  091%=      5-min Rain = 0
KHO1 081938Z 34005KT 02/01 A3029 RMK A01 T00180005  RH  091%=      5-min Rain = 0
KHO1 081939Z 33005KT 02/00 A3029 RMK A01 T00180002  RH  090%=      5-min Rain = 0
KHO1 081940Z 34004KT 02/00 A3029 RMK A01 T00170004  RH  090%=      5-min Rain = 0.01
KHO1 081941Z 01003KT 02/00 A3029 RMK A01 T00180004  RH  091%=      5-min Rain = 0
KHO1 081942Z 00003KT 02/01 A3028 RMK A01 T00180005  RH  091%=      5-min Rain = 0
KHO1 081943Z 35003KT 02/01 A3028 RMK A01 T00190006  RH  091%=      5-min Rain = 0
KHO1 081944Z 01003KT 02/00 A3028 RMK A01 T00190004  RH  090%=      5-min Rain = 0
KHO1 081945Z 36003KT 02/01 A3028 RMK A01 T00200007  RH  091%=      5-min Rain = 0
KHO1 081946Z 00004KT 02/01 A3028 RMK A01 T00210007  RH  091%=      5-min Rain = 0.01
KHO1 081947Z 01002KT 02/01 A3028 RMK A01 T00210007  RH  090%=      5-min Rain = 0
KHO1 081948Z 02003KT 02/00 A3028 RMK A01 T00200002  RH  088%=      5-min Rain = 0
KHO1 081949Z 02003KT 02/00 A3028 RMK A01 T00190001  RH  088%=      5-min Rain = 0
KHO1 081950Z 36003KT 02/01 A3028 RMK A01 T00200006  RH  091%=      5-min Rain = 0
KHO1 081951Z 34004KT 02/01 A3028 RMK A01 T00210005  RH  089%=      5-min Rain = 0
KHO1 081952Z 35003KT 02/00 A3028 RMK A01 T002000-0  RH  086%=      5-min Rain = 0
KHO1 081953Z 33003KT 02/00 A3028 RMK A01 T00210003  RH  088%=      5-min Rain = 0
KHO1 081954Z 32003KT 02/00 A3028 RMK A01 T00220003  RH  087%=      5-min Rain = 0.01
KHO1 081955Z 33003KT 02/00 A3028 RMK A01 T00210000  RH  086%=      5-min Rain = 0
KHO1 081956Z 33003KT 02/M00 A3028 RMK A01 T00211001  RH  086%=      5-min Rain = 0
KHO1 081957Z 34001KT 02/00 A3028 RMK A01 T00220003  RH  088%=      5-min Rain = 0
KHO1 081958Z 34003KT 02/00 A3028 RMK A01 T00230004  RH  088%=      5-min Rain = 0
KHO1 081959Z 34004KT 02/00 A3028 RMK A01 T00230004  RH  088%=      5-min Rain = 0
KHO1 082000Z 35004KT 02/00 A3028 RMK A01 T00220004  RH  087%=      5-min Rain = 0
KHO1 082001Z 35005KT 02/01 A3028 RMK A01 T00240011  RH  091%=      5-min Rain = 0
KHO1 082002Z 33004KT 03/01 A3028 RMK A01 T00250007  RH  088%=      5-min Rain = 0
KHO1 082003Z 34005KT 02/00 A3028 RMK A01 T00240004  RH  087%=      5-min Rain = 0
KHO1 082004Z 35004KT 02/M00 A3028 RMK A01 T00231001  RH  084%=      5-min Rain = 0
KHO1 082005Z 35003KT 02/00 A3028 RMK A01 T002300-0  RH  085%=      5-min Rain = 0
KHO1 082006Z 33004KT 02/00 A3028 RMK A01 T00240004  RH  087%=      5-min Rain = 0
KHO1 082007Z 32004KT 03/01 A3028 RMK A01 T00260005  RH  086%=      5-min Rain = 0
KHO1 082008Z 33004KT 03/01 A3028 RMK A01 T00270008  RH  087%=      5-min Rain = 0
KHO1 082009Z 01005KT 03/00 A3028 RMK A01 T00270003  RH  084%=      5-min Rain = 0
KHO1 082010Z 01003KT 03/M00 A3028 RMK A01 T00251001  RH  083%=      5-min Rain = 0
KHO1 082011Z 02005KT 02/M00 A3028 RMK A01 T00241002  RH  083%=      5-min Rain = 0
KHO1 082012Z 02005KT 02/M00 A3027 RMK A01 T00231002  RH  084%=      5-min Rain = 0
KHO1 082013Z 03004KT 02/00 A3027 RMK A01 T002300-0  RH  085%=      5-min Rain = 0
KHO1 082014Z 02005KT 02/00 A3027 RMK A01 T00230001  RH  086%=      5-min Rain = 0
KHO1 082015Z 02004KT 02/00 A3027 RMK A01 T00240003  RH  086%=      5-min Rain = 0
KHO1 082016Z 36004KT 02/01 A3027 RMK A01 T00240005  RH  087%=      5-min Rain = 0
KHO1 082017Z 36004KT 02/M00 A3028 RMK A01 T00241001  RH  084%=      5-min Rain = 0
KHO1 082018Z 35004KT 02/M00 A3027 RMK A01 T00221003  RH  083%=      5-min Rain = 0
KHO1 082019Z 00004KT 02/M00 A3027 RMK A01 T00221002  RH  084%=      5-min Rain = 0
KHO1 082020Z 01004KT 02/M00 A3027 RMK A01 T00221002  RH  084%=      5-min Rain = 0
KHO1 082021Z 34004KT 02/M00 A3027 RMK A01 T00221001  RH  085%=      5-min Rain = 0
KHO1 082022Z 33004KT 02/00 A3027 RMK A01 T00220001  RH  086%=      5-min Rain = 0
KHO1 082023Z 35004KT 02/00 A3027 RMK A01 T00220002  RH  086%=      5-min Rain = 0
KHO1 082024Z 36004KT 02/00 A3027 RMK A01 T00230004  RH  088%=      5-min Rain = 0
KHO1 082025Z 02005KT 02/01 A3027 RMK A01 T00240006  RH  088%=      5-min Rain = 0
KHO1 082026Z 02005KT 02/00 A3027 RMK A01 T00240004  RH  087%=      5-min Rain = 0
KHO1 082027Z 02005KT 02/00 A3027 RMK A01 T00230004  RH  087%=      5-min Rain = 0
KHO1 082028Z 03006KT 02/00 A3027 RMK A01 T00230003  RH  087%=      5-min Rain = 0
KHO1 082029Z 03004KT 02/00 A3027 RMK A01 T00230001  RH  086%=      5-min Rain = 0
KHO1 082030Z 01003KT 02/00 A3027 RMK A01 T00230002  RH  086%=      5-min Rain = 0
KHO1 082031Z 01003KT 02/01 A3027 RMK A01 T00240005  RH  087%=      5-min Rain = 0
KHO1 082032Z 01003KT 03/00 A3027 RMK A01 T00250004  RH  086%=      5-min Rain = 0
KHO1 082033Z 35003KT 03/00 A3027 RMK A01 T00250003  RH  085%=      5-min Rain = 0
KHO1 082034Z 01004KT 03/00 A3027 RMK A01 T00250003  RH  086%=      5-min Rain = 0
KHO1 082035Z 00005KT 03/00 A3027 RMK A01 T00250003  RH  085%=      5-min Rain = 0
KHO1 082036Z 36005KT 03/00 A3027 RMK A01 T00250002  RH  085%=      5-min Rain = 0
KHO1 082037Z 36005KT 03/00 A3027 RMK A01 T00250001  RH  084%=      5-min Rain = 0
KHO1 082038Z 01006KT 03/00 A3027 RMK A01 T00250002  RH  085%=      5-min Rain = 0
KHO1 082039Z 36005KT 02/00 A3027 RMK A01 T00240000  RH  084%=      5-min Rain = 0
KHO1 082040Z 36005KT 02/00 A3027 RMK A01 T00240001  RH  085%=      5-min Rain = 0
KHO1 082041Z 35004KT 02/00 A3027 RMK A01 T00240002  RH  085%=      5-min Rain = 0
KHO1 082042Z 36004KT 02/00 A3027 RMK A01 T00240001  RH  085%=      5-min Rain = 0
KHO1 082043Z 34003KT 03/00 A3027 RMK A01 T00250003  RH  086%=      5-min Rain = 0
KHO1 082044Z 33004KT 03/00 A3027 RMK A01 T00250003  RH  086%=      5-min Rain = 0
KHO1 082045Z 36005KT 02/00 A3027 RMK A01 T00240001  RH  085%=      5-min Rain = 0
KHO1 082046Z 00005KT 03/00 A3027 RMK A01 T00250002  RH  085%=      5-min Rain = 0
KHO1 082047Z 35004KT 02/M00 A3027 RMK A01 T00241001  RH  083%=      5-min Rain = 0
KHO1 082048Z 36003KT 02/00 A3027 RMK A01 T00240004  RH  086%=      5-min Rain = 0
KHO1 082049Z 02004KT 03/01 A3027 RMK A01 T00250006  RH  087%=      5-min Rain = 0
KHO1 082050Z 01006KT 03/01 A3027 RMK A01 T00260006  RH  087%=      5-min Rain = 0
KHO1 082051Z 01005KT 03/00 A3027 RMK A01 T00260004  RH  086%=      5-min Rain = 0
KHO1 082052Z 35005KT 03/01 A3027 RMK A01 T00260005  RH  086%=      5-min Rain = 0
KHO1 082053Z 35005KT 03/00 A3027 RMK A01 T00260004  RH  085%=      5-min Rain = 0
KHO1 082054Z 35005KT 03/00 A3027 RMK A01 T00260001  RH  084%=      5-min Rain = 0
KHO1 082055Z 35005KT 03/M00 A3027 RMK A01 T00251002  RH  082%=      5-min Rain = 0
KHO1 082056Z 00005KT 03/M00 A3027 RMK A01 T00251003  RH  082%=      5-min Rain = 0
KHO1 082057Z 35005KT 03/M00 A3026 RMK A01 T00251001  RH  083%=      5-min Rain = 0
KHO1 082058Z 35004KT 03/00 A3027 RMK A01 T00260001  RH  084%=      5-min Rain = 0
KHO1 082059Z 33004KT 03/00 A3027 RMK A01 T00270003  RH  085%=      5-min Rain = 0
KHO1 082100Z 33005KT 03/M00 A3027 RMK A01 T00261002  RH  082%=      5-min Rain = 0
KHO1 082101Z 33004KT 03/00 A3027 RMK A01 T002600-0  RH  083%=      5-min Rain = 0
KHO1 082102Z 32004KT 03/00 A3027 RMK A01 T00270002  RH  084%=      5-min Rain = 0
KHO1 082103Z 32004KT 03/00 A3027 RMK A01 T00270002  RH  084%=      5-min Rain = 0
KHO1 082104Z 33004KT 03/00 A3027 RMK A01 T00270000  RH  083%=      5-min Rain = 0
KHO1 082105Z 33004KT 03/00 A3027 RMK A01 T00270002  RH  084%=      5-min Rain = 0
KHO1 082106Z 32004KT 03/00 A3027 RMK A01 T002700-0  RH  082%=      5-min Rain = 0
KHO1 082107Z 33003KT 03/00 A3027 RMK A01 T00270004  RH  085%=      5-min Rain = 0
KHO1 082108Z 33005KT 03/00 A3027 RMK A01 T00270001  RH  083%=      5-min Rain = 0
KHO1 082109Z 36004KT 03/00 A3027 RMK A01 T00270001  RH  083%=      5-min Rain = 0
KHO1 082110Z 35005KT 03/00 A3027 RMK A01 T00270001  RH  083%=      5-min Rain = 0
KHO1 082111Z 33005KT 03/M00 A3027 RMK A01 T00271001  RH  082%=      5-min Rain = 0
KHO1 082112Z 32003KT 03/M00 A3027 RMK A01 T00261003  RH  081%=      5-min Rain = 0
KHO1 082113Z 32002KT 03/M00 A3027 RMK A01 T00261003  RH  081%=      5-min Rain = 0
KHO1 082114Z 34003KT 03/M00 A3027 RMK A01 T00261002  RH  082%=      5-min Rain = 0
KHO1 082115Z 35005KT 03/00 A3027 RMK A01 T00270000  RH  083%=      5-min Rain = 0
KHO1 082116Z 00004KT 03/00 A3027 RMK A01 T00270000  RH  083%=      5-min Rain = 0
KHO1 082117Z 35002KT 03/M00 A3027 RMK A01 T00261003  RH  081%=      5-min Rain = 0
KHO1 082118Z 35003KT 03/M00 A3026 RMK A01 T00261001  RH  082%=      5-min Rain = 0
KHO1 082119Z 31003KT 03/M00 A3027 RMK A01 T00271001  RH  082%=      5-min Rain = 0
KHO1 082120Z 30003KT 03/M00 A3027 RMK A01 T00271002  RH  081%=      5-min Rain = 0
KHO1 082121Z 34003KT 03/00 A3026 RMK A01 T00270001  RH  083%=      5-min Rain = 0
KHO1 082122Z 36003KT 03/00 A3026 RMK A01 T002800-0  RH  081%=      5-min Rain = 0
KHO1 082123Z 01004KT 03/M00 A3026 RMK A01 T00281001  RH  081%=      5-min Rain = 0
KHO1 082124Z 00003KT 03/M00 A3026 RMK A01 T00281002  RH  080%=      5-min Rain = 0
KHO1 082125Z 35002KT 03/M00 A3026 RMK A01 T00281001  RH  081%=      5-min Rain = 0
KHO1 082126Z 33003KT 03/01 A3026 RMK A01 T00290006  RH  085%=      5-min Rain = 0
KHO1 082127Z 31003KT 03/00 A3026 RMK A01 T00300001  RH  081%=      5-min Rain = 0
KHO1 082128Z 32003KT 03/M00 A3026 RMK A01 T00301003  RH  079%=      5-min Rain = 0
KHO1 082129Z 33005KT 03/M00 A3026 RMK A01 T00301001  RH  080%=      5-min Rain = 0
KHO1 082130Z 34005KT 03/M00 A3026 RMK A01 T00291004  RH  079%=      5-min Rain = 0
KHO1 082131Z 34005KT 03/M00 A3026 RMK A01 T00291004  RH  079%=      5-min Rain = 0
KHO1 082132Z 32004KT 03/M00 A3026 RMK A01 T00291004  RH  079%=      5-min Rain = 0
KHO1 082133Z 30004KT 03/M01 A3026 RMK A01 T00291006  RH  077%=      5-min Rain = 0
KHO1 082134Z 31005KT 03/M01 A3026 RMK A01 T00301005  RH  078%=      5-min Rain = 0
KHO1 082135Z 32004KT 03/M01 A3026 RMK A01 T00291007  RH  077%=      5-min Rain = 0
KHO1 082136Z 31004KT 03/M01 A3026 RMK A01 T00291006  RH  078%=      5-min Rain = 0
KHO1 082137Z 30003KT 03/M01 A3026 RMK A01 T00291006  RH  078%=      5-min Rain = 0
KHO1 082138Z 31003KT 03/M00 A3026 RMK A01 T00301004  RH  078%=      5-min Rain = 0
KHO1 082139Z 33004KT 03/M00 A3026 RMK A01 T00301002  RH  079%=      5-min Rain = 0
KHO1 082140Z 32004KT 03/M01 A3026 RMK A01 T00301007  RH  077%=      5-min Rain = 0
KHO1 082141Z 31004KT 03/M01 A3026 RMK A01 T00291005  RH  078%=      5-min Rain = 0
KHO1 082142Z 32004KT 03/M01 A3026 RMK A01 T00291005  RH  078%=      5-min Rain = 0
KHO1 082143Z 33003KT 03/M00 A3026 RMK A01 T00291003  RH  079%=      5-min Rain = 0
KHO1 082144Z 32003KT 03/M00 A3026 RMK A01 T00301002  RH  080%=      5-min Rain = 0
KHO1 082145Z 33003KT 03/M01 A3026 RMK A01 T00301005  RH  078%=      5-min Rain = 0
KHO1 082146Z 32003KT 03/M01 A3026 RMK A01 T00301005  RH  078%=      5-min Rain = 0
KHO1 082147Z 33004KT 03/M00 A3026 RMK A01 T00301004  RH  078%=      5-min Rain = 0
KHO1 082148Z 31003KT 03/M01 A3026 RMK A01 T00311005  RH  078%=      5-min Rain = 0
KHO1 082149Z 31003KT 03/M00 A3026 RMK A01 T00321001  RH  079%=      5-min Rain = 0
KHO1 082150Z 31003KT 03/M00 A3026 RMK A01 T00341001  RH  078%=      5-min Rain = 0
KHO1 082151Z 33003KT 04/00 A3026 RMK A01 T00360001  RH  078%=      5-min Rain = 0
KHO1 082152Z 02005KT 04/00 A3026 RMK A01 T00380004  RH  079%=      5-min Rain = 0
KHO1 082153Z 02003KT 04/00 A3026 RMK A01 T00380003  RH  078%=      5-min Rain = 0
KHO1 082154Z 04002KT 04/00 A3026 RMK A01 T00390003  RH  077%=      5-min Rain = 0
KHO1 082155Z 04004KT 04/00 A3026 RMK A01 T00390003  RH  077%=      5-min Rain = 0
KHO1 082156Z 05004KT 04/00 A3026 RMK A01 T00390000  RH  076%=      5-min Rain = 0
KHO1 082157Z 03004KT 04/00 A3026 RMK A01 T00390001  RH  076%=      5-min Rain = 0
KHO1 082158Z 01003KT 04/M00 A3026 RMK A01 T00381003  RH  074%=      5-min Rain = 0
KHO1 082159Z 01003KT 04/M01 A3026 RMK A01 T00371005  RH  074%=      5-min Rain = 0
KHO1 082200Z 01006KT 04/M00 A3026 RMK A01 T00371003  RH  076%=      5-min Rain = 0
KHO1 082201Z 00005KT 04/M00 A3026 RMK A01 T00361004  RH  075%=      5-min Rain = 0
KHO1 082202Z 01005KT 04/00 A3026 RMK A01 T00370001  RH  077%=      5-min Rain = 0
KHO1 082203Z 35005KT 04/M00 A3026 RMK A01 T00381001  RH  076%=      5-min Rain = 0
KHO1 082204Z 01005KT 04/M00 A3026 RMK A01 T00381003  RH  075%=      5-min Rain = 0
KHO1 082205Z 00006KT 04/M01 A3026 RMK A01 T00371005  RH  074%=      5-min Rain = 0
KHO1 082206Z 36004KT 04/M01 A3026 RMK A01 T00361007  RH  074%=      5-min Rain = 0
KHO1 082207Z 35005KT 04/M01 A3026 RMK A01 T00351006  RH  074%=      5-min Rain = 0
KHO1 082208Z 35004KT 03/M01 A3026 RMK A01 T00331009  RH  074%=      5-min Rain = 0
KHO1 082209Z 35003KT 03/M01 A3026 RMK A01 T00321007  RH  075%=      5-min Rain = 0
KHO1 082210Z 35003KT 03/M01 A3026 RMK A01 T00331005  RH  076%=      5-min Rain = 0
KHO1 082211Z 35003KT 03/M01 A3026 RMK A01 T00341006  RH  075%=      5-min Rain = 0
KHO1 082212Z 34003KT 03/M00 A3026 RMK A01 T00341004  RH  076%=      5-min Rain = 0
KHO1 082213Z 34003KT 04/M00 A3026 RMK A01 T00361003  RH  076%=      5-min Rain = 0
KHO1 082214Z 36004KT 04/M00 A3026 RMK A01 T00371002  RH  076%=      5-min Rain = 0
KHO1 082215Z 35004KT 04/M00 A3026 RMK A01 T00371003  RH  075%=      5-min Rain = 0
KHO1 082216Z 35006KT 04/M01 A3026 RMK A01 T00361006  RH  074%=      5-min Rain = 0
KHO1 082217Z 01003KT 04/M01 A3026 RMK A01 T00351006  RH  075%=      5-min Rain = 0
KHO1 082218Z 00005KT 03/M01 A3026 RMK A01 T00341005  RH  076%=      5-min Rain = 0
KHO1 082219Z 35004KT 03/M01 A3026 RMK A01 T00341007  RH  075%=      5-min Rain = 0
KHO1 082220Z 33003KT 03/M01 A3026 RMK A01 T00331008  RH  074%=      5-min Rain = 0
KHO1 082221Z 36002KT 03/M01 A3026 RMK A01 T00341006  RH  075%=      5-min Rain = 0
KHO1 082222Z 02003KT 04/M01 A3026 RMK A01 T00351006  RH  075%=      5-min Rain = 0
KHO1 082223Z 04002KT 04/M00 A3026 RMK A01 T00361003  RH  076%=      5-min Rain = 0
KHO1 082224Z 04001KT 04/M00 A3026 RMK A01 T00371003  RH  075%=      5-min Rain = 0
KHO1 082225Z 05002KT 04/M00 A3026 RMK A01 T00381003  RH  074%=      5-min Rain = 0
KHO1 082226Z 05003KT 04/M00 A3026 RMK A01 T00391004  RH  074%=      5-min Rain = 0
KHO1 082227Z 01004KT 04/M00 A3026 RMK A01 T00391004  RH  073%=      5-min Rain = 0
KHO1 082228Z 34005KT 04/M01 A3026 RMK A01 T00381008  RH  072%=      5-min Rain = 0
KHO1 082229Z 35004KT 04/M01 A3026 RMK A01 T00371007  RH  073%=      5-min Rain = 0
KHO1 082230Z 35004KT 04/M01 A3026 RMK A01 T00361006  RH  074%=      5-min Rain = 0
KHO1 082231Z 35004KT 04/M01 A3026 RMK A01 T00361007  RH  074%=      5-min Rain = 0
KHO1 082232Z 35003KT 04/M00 A3026 RMK A01 T00361003  RH  075%=      5-min Rain = 0
KHO1 082233Z 35004KT 04/M01 A3026 RMK A01 T00371005  RH  074%=      5-min Rain = 0
KHO1 082234Z 36003KT 04/M01 A3026 RMK A01 T00361007  RH  073%=      5-min Rain = 0
KHO1 082235Z 34004KT 04/M01 A3026 RMK A01 T00361007  RH  073%=      5-min Rain = 0
KHO1 082236Z 34003KT 04/M01 A3026 RMK A01 T00361008  RH  073%=      5-min Rain = 0
KHO1 082237Z 36005KT 04/M01 A3026 RMK A01 T00351010  RH  072%=      5-min Rain = 0
KHO1 082238Z 01005KT 04/M01 A3026 RMK A01 T00351009  RH  073%=      5-min Rain = 0
KHO1 082239Z 01004KT 04/M01 A3026 RMK A01 T00351008  RH  073%=      5-min Rain = 0
KHO1 082240Z 01004KT 04/M01 A3026 RMK A01 T00361005  RH  074%=      5-min Rain = 0
KHO1 082241Z 01004KT 04/M01 A3026 RMK A01 T00361007  RH  074%=      5-min Rain = 0
KHO1 082242Z 01003KT 04/M01 A3026 RMK A01 T00361008  RH  073%=      5-min Rain = 0
KHO1 082243Z 02004KT 04/M01 A3026 RMK A01 T00361007  RH  073%=      5-min Rain = 0
KHO1 082244Z 04003KT 04/M01 A3026 RMK A01 T00371006  RH  074%=      5-min Rain = 0
KHO1 082245Z 03003KT 04/M01 A3026 RMK A01 T00371006  RH  073%=      5-min Rain = 0
KHO1 082246Z 01005KT 04/M01 A3026 RMK A01 T00371007  RH  073%=      5-min Rain = 0
KHO1 082247Z 34003KT 04/M01 A3026 RMK A01 T00371006  RH  073%=      5-min Rain = 0
KHO1 082248Z 35003KT 04/M01 A3026 RMK A01 T00371006  RH  073%=      5-min Rain = 0
KHO1 082249Z 35004KT 04/M01 A3026 RMK A01 T00381005  RH  073%=      5-min Rain = 0
KHO1 082250Z 35004KT 04/M01 A3026 RMK A01 T00371009  RH  072%=      5-min Rain = 0
KHO1 082251Z 35003KT 04/M01 A3026 RMK A01 T00361011  RH  071%=      5-min Rain = 0
KHO1 082252Z 03003KT 04/M01 A3026 RMK A01 T00351009  RH  073%=      5-min Rain = 0
KHO1 082253Z 03003KT 04/M01 A3026 RMK A01 T00361007  RH  073%=      5-min Rain = 0
KHO1 082254Z 02005KT 04/M01 A3026 RMK A01 T00361009  RH  072%=      5-min Rain = 0
KHO1 082255Z 02004KT 04/M01 A3026 RMK A01 T00361007  RH  073%=      5-min Rain = 0
KHO1 082256Z 02004KT 04/M01 A3026 RMK A01 T00361008  RH  073%=      5-min Rain = 0
KHO1 082257Z 03005KT 04/M01 A3026 RMK A01 T00351010  RH  073%=      5-min Rain = 0
KHO1 082258Z 02005KT 03/M01 A3026 RMK A01 T00341010  RH  073%=      5-min Rain = 0
KHO1 082259Z 03005KT 03/M01 A3026 RMK A01 T00331011  RH  073%=      5-min Rain = 0
KHO1 082300Z 01005KT 03/M01 A3026 RMK A01 T00331011  RH  073%=      5-min Rain = 0
KHO1 082301Z 01004KT 03/M01 A3026 RMK A01 T00331009  RH  074%=      5-min Rain = 0
KHO1 082302Z 01005KT 03/M01 A3026 RMK A01 T00331010  RH  073%=      5-min Rain = 0
KHO1 082303Z 02004KT 03/M01 A3026 RMK A01 T00331010  RH  074%=      5-min Rain = 0
KHO1 082304Z 02004KT 03/M01 A3026 RMK A01 T00321010  RH  074%=      5-min Rain = 0
KHO1 082305Z 01004KT 03/M01 A3026 RMK A01 T00331009  RH  074%=      5-min Rain = 0
KHO1 082306Z 01005KT 03/M01 A3026 RMK A01 T00321011  RH  074%=      5-min Rain = 0
KHO1 082307Z 01005KT 03/M01 A3026 RMK A01 T00321011  RH  074%=      5-min Rain = 0
KHO1 082308Z 02005KT 03/M01 A3026 RMK A01 T00321012  RH  073%=      5-min Rain = 0
KHO1 082309Z 00004KT 03/M01 A3026 RMK A01 T00311011  RH  074%=      5-min Rain = 0
KHO1 082310Z 01004KT 03/M01 A3026 RMK A01 T00321009  RH  074%=      5-min Rain = 0
KHO1 082311Z 01005KT 03/M01 A3026 RMK A01 T00321010  RH  074%=      5-min Rain = 0
KHO1 082312Z 01004KT 03/M01 A3026 RMK A01 T00311013  RH  073%=      5-min Rain = 0
KHO1 082313Z 01004KT 03/M01 A3026 RMK A01 T00311012  RH  073%=      5-min Rain = 0
KHO1 082314Z 02004KT 03/M01 A3026 RMK A01 T00311012  RH  073%=      5-min Rain = 0
KHO1 082315Z 02004KT 03/M01 A3026 RMK A01 T00311012  RH  073%=      5-min Rain = 0
KHO1 082316Z 03004KT 03/M01 A3026 RMK A01 T00311012  RH  073%=      5-min Rain = 0
KHO1 082317Z 02005KT 03/M01 A3026 RMK A01 T00311013  RH  073%=      5-min Rain = 0
KHO1 082318Z 03003KT 03/M01 A3026 RMK A01 T00311013  RH  073%=      5-min Rain = 0
KHO1 082319Z 02003KT 03/M01 A3026 RMK A01 T00311012  RH  074%=      5-min Rain = 0
KHO1 082320Z 02004KT 03/M01 A3026 RMK A01 T00301012  RH  074%=      5-min Rain = 0
KHO1 082321Z 01005KT 03/M02 A3026 RMK A01 T00301015  RH  073%=      5-min Rain = 0
KHO1 082322Z 01005KT 03/M02 A3026 RMK A01 T00291016  RH  072%=      5-min Rain = 0
KHO1 082323Z 00004KT 03/M02 A3026 RMK A01 T00291016  RH  072%=      5-min Rain = 0
KHO1 082324Z 01004KT 03/M02 A3026 RMK A01 T00291015  RH  073%=      5-min Rain = 0
KHO1 082325Z 00004KT 03/M01 A3026 RMK A01 T00291014  RH  073%=      5-min Rain = 0
KHO1 082326Z 01004KT 03/M01 A3026 RMK A01 T00291014  RH  074%=      5-min Rain = 0
KHO1 082327Z 01004KT 03/M01 A3026 RMK A01 T00281014  RH  074%=      5-min Rain = 0
KHO1 082328Z 01004KT 03/M01 A3026 RMK A01 T00281014  RH  074%=      5-min Rain = 0
KHO1 082329Z 01004KT 03/M02 A3026 RMK A01 T00281015  RH  074%=      5-min Rain = 0
KHO1 082330Z 01004KT 03/M02 A3026 RMK A01 T00271016  RH  073%=      5-min Rain = 0
KHO1 082331Z 01004KT 03/M02 A3026 RMK A01 T00271016  RH  073%=      5-min Rain = 0
KHO1 082332Z 02003KT 03/M02 A3026 RMK A01 T00261016  RH  074%=      5-min Rain = 0
KHO1 082333Z 03005KT 03/M02 A3026 RMK A01 T00261016  RH  074%=      5-min Rain = 0
KHO1 082334Z 03004KT 03/M02 A3026 RMK A01 T00251018  RH  073%=      5-min Rain = 0
KHO1 082335Z 04004KT 03/M02 A3026 RMK A01 T00251018  RH  074%=      5-min Rain = 0
KHO1 082336Z 03004KT 03/M02 A3026 RMK A01 T00251017  RH  074%=      5-min Rain = 0
KHO1 082337Z 04004KT 02/M02 A3026 RMK A01 T00241017  RH  074%=      5-min Rain = 0
KHO1 082338Z 03004KT 02/M02 A3026 RMK A01 T00231017  RH  075%=      5-min Rain = 0
KHO1 082339Z 03004KT 02/M02 A3026 RMK A01 T00231017  RH  075%=      5-min Rain = 0
KHO1 082340Z 02004KT 02/M02 A3026 RMK A01 T00221018  RH  075%=      5-min Rain = 0
KHO1 082341Z 03004KT 02/M02 A3026 RMK A01 T00221019  RH  075%=      5-min Rain = 0
KHO1 082342Z 03004KT 02/M02 A3026 RMK A01 T00211019  RH  075%=      5-min Rain = 0
KHO1 082343Z 02003KT 02/M02 A3026 RMK A01 T00211019  RH  075%=      5-min Rain = 0
KHO1 082344Z 03004KT 02/M02 A3026 RMK A01 T00201019  RH  075%=      5-min Rain = 0
KHO1 082345Z 03004KT 02/M02 A3026 RMK A01 T00201019  RH  076%=      5-min Rain = 0
KHO1 082346Z 03004KT 02/M02 A3026 RMK A01 T00191019  RH  076%=      5-min Rain = 0
KHO1 082347Z 03004KT 02/M02 A3026 RMK A01 T00191019  RH  076%=      5-min Rain = 0
KHO1 082348Z 03004KT 02/M02 A3026 RMK A01 T00191019  RH  076%=      5-min Rain = 0
KHO1 082349Z 03004KT 02/M02 A3026 RMK A01 T00191019  RH  076%=      5-min Rain = 0
KHO1 082350Z 03004KT 02/M02 A3026 RMK A01 T00191019  RH  076%=      5-min Rain = 0
KHO1 082351Z 03004KT 02/M02 A3026 RMK A01 T00181019  RH  076%=      5-min Rain = 0
KHO1 082352Z 03004KT 02/M02 A3026 RMK A01 T00181019  RH  077%=      5-min Rain = 0
KHO1 082353Z 03004KT 02/M02 A3026 RMK A01 T00181019  RH  077%=      5-min Rain = 0
KHO1 082354Z 03003KT 02/M02 A3026 RMK A01 T00181019  RH  077%=      5-min Rain = 0
KHO1 082355Z 04003KT 02/M02 A3026 RMK A01 T00171019  RH  077%=      5-min Rain = 0
KHO1 082356Z 04003KT 02/M02 A3026 RMK A01 T00171018  RH  077%=      5-min Rain = 0
KHO1 082357Z 04003KT 02/M02 A3026 RMK A01 T00171018  RH  077%=      5-min Rain = 0
KHO1 082358Z 05002KT 02/M02 A3025 RMK A01 T00171018  RH  077%=      5-min Rain = 0
KHO1 082359Z 05002KT 02/M02 A3025 RMK A01 T00171019  RH  077%=      5-min Rain = 0
KHO1 090000Z 06002KT 02/M02 A3025 RMK A01 T00161019  RH  077%=      5-min Rain = 0
KHO1 090001Z 06002KT 02/M02 A3026 RMK A01 T00161019  RH  077%=      5-min Rain = 0
KHO1 090002Z 07002KT 02/M02 A3026 RMK A01 T00161020  RH  077%=      5-min Rain = 0
KHO1 090003Z 07002KT 02/M02 A3026 RMK A01 T00161020  RH  077%=      5-min Rain = 0
KHO1 090004Z 06002KT 02/M02 A3026 RMK A01 T00151021  RH  077%=      5-min Rain = 0
KHO1 090005Z 06001KT 02/M02 A3026 RMK A01 T00151021  RH  077%=      5-min Rain = 0
KHO1 090006Z 05002KT 02/M02 A3026 RMK A01 T00151021  RH  077%=      5-min Rain = 0
KHO1 090007Z 05002KT 02/M02 A3026 RMK A01 T00151021  RH  077%=      5-min Rain = 0
KHO1 090008Z 05002KT 02/M02 A3026 RMK A01 T00151021  RH  077%=      5-min Rain = 0
KHO1 090009Z 06001KT 01/M02 A3026 RMK A01 T00141021  RH  077%=      5-min Rain = 0
KHO1 090010Z 06001KT 01/M02 A3026 RMK A01 T00141021  RH  077%=      5-min Rain = 0
KHO1 090011Z 06001KT 01/M02 A3026 RMK A01 T00141021  RH  078%=      5-min Rain = 0
KHO1 090012Z 06001KT 01/M02 A3026 RMK A01 T00131021  RH  078%=      5-min Rain = 0
KHO1 090013Z 07001KT 01/M02 A3026 RMK A01 T00131021  RH  078%=      5-min Rain = 0
KHO1 090014Z 07002KT 01/M02 A3026 RMK A01 T00131022  RH  078%=      5-min Rain = 0
KHO1 090015Z 06002KT 01/M02 A3026 RMK A01 T00121022  RH  078%=      5-min Rain = 0
KHO1 090016Z 06002KT 01/M02 A3026 RMK A01 T00121022  RH  078%=      5-min Rain = 0
KHO1 090017Z 06002KT 01/M02 A3026 RMK A01 T00121021  RH  078%=      5-min Rain = 0
KHO1 090018Z 05003KT 01/M02 A3026 RMK A01 T00121021  RH  079%=      5-min Rain = 0
KHO1 090019Z 05003KT 01/M02 A3026 RMK A01 T00121020  RH  079%=      5-min Rain = 0
KHO1 090020Z 05003KT 01/M02 A3026 RMK A01 T00121020  RH  079%=      5-min Rain = 0
KHO1 090021Z 05003KT 01/M02 A3026 RMK A01 T00121020  RH  079%=      5-min Rain = 0
KHO1 090022Z 05003KT 01/M02 A3026 RMK A01 T00111020  RH  079%=      5-min Rain = 0
KHO1 090023Z 05003KT 01/M02 A3026 RMK A01 T00111020  RH  079%=      5-min Rain = 0
KHO1 090024Z 04003KT 01/M02 A3026 RMK A01 T00111020  RH  080%=      5-min Rain = 0
KHO1 090025Z 04003KT 01/M02 A3026 RMK A01 T00111020  RH  080%=      5-min Rain = 0
KHO1 090026Z 04003KT 01/M02 A3026 RMK A01 T00111020  RH  080%=      5-min Rain = 0
KHO1 090027Z 03002KT 01/M02 A3026 RMK A01 T00111020  RH  080%=      5-min Rain = 0
KHO1 090028Z 03003KT 01/M02 A3026 RMK A01 T00111020  RH  080%=      5-min Rain = 0
KHO1 090029Z 03002KT 01/M02 A3026 RMK A01 T00111020  RH  080%=      5-min Rain = 0
KHO1 090030Z 03003KT 01/M02 A3026 RMK A01 T00111020  RH  080%=      5-min Rain = 0
KHO1 090031Z 03002KT 01/M02 A3026 RMK A01 T00111020  RH  080%=      5-min Rain = 0
KHO1 090032Z 03002KT 01/M02 A3026 RMK A01 T00111020  RH  080%=      5-min Rain = 0
KHO1 090033Z 03003KT 01/M02 A3026 RMK A01 T00111020  RH  080%=      5-min Rain = 0
KHO1 090034Z 03003KT 01/M02 A3026 RMK A01 T00111020  RH  080%=      5-min Rain = 0
KHO1 090035Z 03003KT 01/M02 A3026 RMK A01 T00111020  RH  080%=      5-min Rain = 0
KHO1 090036Z 03003KT 01/M02 A3026 RMK A01 T00111020  RH  080%=      5-min Rain = 0
KHO1 090037Z 03003KT 01/M02 A3026 RMK A01 T00121020  RH  079%=      5-min Rain = 0
KHO1 090038Z 04003KT 01/M02 A3026 RMK A01 T00121020  RH  079%=      5-min Rain = 0
KHO1 090039Z 04003KT 01/M02 A3026 RMK A01 T00111020  RH  079%=      5-min Rain = 0
KHO1 090040Z 04003KT 01/M02 A3026 RMK A01 T00111020  RH  079%=      5-min Rain = 0
KHO1 090041Z 04003KT 01/M02 A3026 RMK A01 T00111020  RH  079%=      5-min Rain = 0
KHO1 090042Z 04003KT 01/M02 A3026 RMK A01 T00111021  RH  079%=      5-min Rain = 0
KHO1 090043Z 04003KT 01/M02 A3026 RMK A01 T00111021  RH  080%=      5-min Rain = 0
KHO1 090044Z 04003KT 01/M02 A3026 RMK A01 T00101021  RH  080%=      5-min Rain = 0
KHO1 090045Z 04003KT 01/M02 A3026 RMK A01 T00101021  RH  080%=      5-min Rain = 0
KHO1 090046Z 04003KT 01/M02 A3027 RMK A01 T00101021  RH  080%=      5-min Rain = 0
KHO1 090047Z 04002KT 01/M02 A3027 RMK A01 T00101021  RH  080%=      5-min Rain = 0
KHO1 090048Z 04003KT 01/M02 A3027 RMK A01 T00101022  RH  080%=      5-min Rain = 0
KHO1 090049Z 04003KT 01/M02 A3027 RMK A01 T00091022  RH  080%=      5-min Rain = 0
KHO1 090050Z 04003KT 01/M02 A3027 RMK A01 T00091022  RH  080%=      5-min Rain = 0
KHO1 090051Z 04002KT 01/M02 A3027 RMK A01 T00091022  RH  080%=      5-min Rain = 0
KHO1 090052Z 04002KT 01/M02 A3027 RMK A01 T00091022  RH  080%=      5-min Rain = 0
KHO1 090053Z 04002KT 01/M02 A3027 RMK A01 T00091022  RH  080%=      5-min Rain = 0
KHO1 090054Z 04002KT 01/M02 A3027 RMK A01 T00091022  RH  080%=      5-min Rain = 0
KHO1 090055Z 04002KT 01/M02 A3027 RMK A01 T00081022  RH  080%=      5-min Rain = 0
KHO1 090056Z 03002KT 01/M02 A3027 RMK A01 T00081022  RH  080%=      5-min Rain = 0
KHO1 090057Z 03002KT 01/M02 A3027 RMK A01 T00081023  RH  080%=      5-min Rain = 0
KHO1 090058Z 03002KT 01/M02 A3027 RMK A01 T00081023  RH  080%=      5-min Rain = 0
KHO1 090059Z 03002KT 01/M02 A3027 RMK A01 T00081023  RH  080%=      5-min Rain = 0
KHO1 090100Z 03002KT 01/M02 A3027 RMK A01 T00081023  RH  080%=      5-min Rain = 0
KHO1 090101Z 04002KT 01/M02 A3027 RMK A01 T00081023  RH  080%=      5-min Rain = 0
KHO1 090102Z 04002KT 01/M02 A3027 RMK A01 T00081023  RH  080%=      5-min Rain = 0
KHO1 090103Z 04002KT 01/M02 A3027 RMK A01 T00081023  RH  080%=      5-min Rain = 0
KHO1 090104Z 05002KT 01/M02 A3027 RMK A01 T00081023  RH  080%=      5-min Rain = 0
KHO1 090105Z 05002KT 01/M02 A3027 RMK A01 T00081023  RH  080%=      5-min Rain = 0
KHO1 090106Z 05002KT 01/M02 A3027 RMK A01 T00081023  RH  080%=      5-min Rain = 0
KHO1 090107Z 05001KT 01/M02 A3027 RMK A01 T00071023  RH  080%=      5-min Rain = 0
KHO1 090108Z 05002KT 01/M02 A3027 RMK A01 T00071023  RH  080%=      5-min Rain = 0
KHO1 090109Z 04002KT 01/M02 A3027 RMK A01 T00071023  RH  080%=      5-min Rain = 0
KHO1 090110Z 04002KT 01/M02 A3028 RMK A01 T00071023  RH  080%=      5-min Rain = 0
KHO1 090111Z 03002KT 01/M02 A3028 RMK A01 T00071023  RH  080%=      5-min Rain = 0
KHO1 090112Z 03002KT 01/M02 A3028 RMK A01 T00071024  RH  080%=      5-min Rain = 0
KHO1 090113Z 03002KT 01/M02 A3028 RMK A01 T00061024  RH  080%=      5-min Rain = 0
KHO1 090114Z 04002KT 01/M02 A3028 RMK A01 T00061024  RH  081%=      5-min Rain = 0
KHO1 090115Z 04002KT 01/M02 A3028 RMK A01 T00061023  RH  081%=      5-min Rain = 0
KHO1 090116Z 05002KT 01/M02 A3028 RMK A01 T00061023  RH  081%=      5-min Rain = 0
KHO1 090117Z 05002KT 01/M02 A3028 RMK A01 T00061023  RH  081%=      5-min Rain = 0
KHO1 090118Z 05002KT 01/M02 A3028 RMK A01 T00061023  RH  081%=      5-min Rain = 0
KHO1 090119Z 05001KT 01/M02 A3028 RMK A01 T00061023  RH  081%=      5-min Rain = 0
KHO1 090120Z 05001KT 01/M02 A3028 RMK A01 T00061023  RH  081%=      5-min Rain = 0
KHO1 090121Z 05001KT 01/M02 A3028 RMK A01 T00061024  RH  081%=      5-min Rain = 0
KHO1 090122Z 05002KT 01/M02 A3028 RMK A01 T00061024  RH  081%=      5-min Rain = 0
KHO1 090123Z 05002KT 01/M02 A3028 RMK A01 T00051024  RH  081%=      5-min Rain = 0
KHO1 090124Z 05002KT 01/M02 A3028 RMK A01 T00051024  RH  081%=      5-min Rain = 0
KHO1 090125Z 05002KT 01/M02 A3028 RMK A01 T00051024  RH  081%=      5-min Rain = 0
KHO1 090126Z 05002KT 01/M02 A3028 RMK A01 T00051024  RH  081%=      5-min Rain = 0
KHO1 090127Z 05002KT 00/M03 A3028 RMK A01 T00041025  RH  081%=      5-min Rain = 0
KHO1 090128Z 05002KT 00/M03 A3028 RMK A01 T00041025  RH  081%=      5-min Rain = 0
KHO1 090129Z 05002KT 00/M03 A3028 RMK A01 T00041025  RH  081%=      5-min Rain = 0
KHO1 090130Z 05002KT 00/M03 A3028 RMK A01 T00041026  RH  080%=      5-min Rain = 0
KHO1 090131Z 05002KT 00/M03 A3028 RMK A01 T00041026  RH  080%=      5-min Rain = 0
KHO1 090132Z 05002KT 01/M03 A3028 RMK A01 T00051026  RH  080%=      5-min Rain = 0
KHO1 090133Z 05002KT 01/M03 A3028 RMK A01 T00051026  RH  080%=      5-min Rain = 0
KHO1 090134Z 05002KT 01/M03 A3028 RMK A01 T00051026  RH  079%=      5-min Rain = 0
KHO1 090135Z 05002KT 01/M03 A3028 RMK A01 T00061026  RH  079%=      5-min Rain = 0
KHO1 090136Z 05002KT 01/M03 A3028 RMK A01 T00061026  RH  079%=      5-min Rain = 0
KHO1 090137Z 05002KT 01/M03 A3028 RMK A01 T00061026  RH  079%=      5-min Rain = 0
KHO1 090138Z 05002KT 01/M03 A3028 RMK A01 T00061027  RH  079%=      5-min Rain = 0
KHO1 090139Z 05003KT 01/M03 A3028 RMK A01 T00061027  RH  079%=      5-min Rain = 0
KHO1 090140Z 05003KT 01/M03 A3028 RMK A01 T00061027  RH  079%=      5-min Rain = 0
KHO1 090141Z 05002KT 01/M03 A3028 RMK A01 T00061027  RH  079%=      5-min Rain = 0
KHO1 090142Z 05002KT 01/M03 A3028 RMK A01 T00061027  RH  079%=      5-min Rain = 0
KHO1 090143Z 05002KT 01/M03 A3029 RMK A01 T00061027  RH  079%=      5-min Rain = 0
KHO1 090144Z 05002KT 01/M03 A3029 RMK A01 T00061027  RH  079%=      5-min Rain = 0
KHO1 090145Z 05002KT 01/M03 A3029 RMK A01 T00061026  RH  079%=      5-min Rain = 0
KHO1 090146Z 05002KT 01/M03 A3029 RMK A01 T00061026  RH  079%=      5-min Rain = 0
KHO1 090147Z 05002KT 01/M03 A3029 RMK A01 T00061026  RH  079%=      5-min Rain = 0
KHO1 090148Z 05002KT 01/M03 A3029 RMK A01 T00061026  RH  079%=      5-min Rain = 0
KHO1 090149Z 05002KT 01/M03 A3029 RMK A01 T00061026  RH  079%=      5-min Rain = 0
KHO1 090150Z 05001KT 01/M03 A3029 RMK A01 T00051026  RH  079%=      5-min Rain = 0
KHO1 090151Z 05001KT 01/M03 A3029 RMK A01 T00051026  RH  079%=      5-min Rain = 0
KHO1 090152Z 05001KT 01/M03 A3029 RMK A01 T00051027  RH  079%=      5-min Rain = 0
KHO1 090153Z 05001KT 01/M03 A3029 RMK A01 T00051027  RH  079%=      5-min Rain = 0
KHO1 090154Z 05001KT 00/M03 A3029 RMK A01 T00041027  RH  079%=      5-min Rain = 0
KHO1 090155Z 05001KT 00/M03 A3029 RMK A01 T00041027  RH  080%=      5-min Rain = 0
KHO1 090156Z 05002KT 00/M03 A3029 RMK A01 T00041027  RH  080%=      5-min Rain = 0
KHO1 090157Z 05002KT 00/M03 A3029 RMK A01 T00041027  RH  080%=      5-min Rain = 0
KHO1 090158Z 05001KT 00/M03 A3029 RMK A01 T00031027  RH  080%=      5-min Rain = 0
KHO1 090159Z 05001KT 00/M03 A3029 RMK A01 T00031027  RH  080%=      5-min Rain = 0
KHO1 090200Z 05002KT 00/M03 A3029 RMK A01 T00031027  RH  080%=      5-min Rain = 0
KHO1 090201Z 05002KT 00/M03 A3029 RMK A01 T00021027  RH  080%=      5-min Rain = 0
KHO1 090202Z 05002KT 00/M03 A3029 RMK A01 T00021027  RH  081%=      5-min Rain = 0
KHO1 090203Z 05002KT 00/M03 A3029 RMK A01 T00021027  RH  081%=      5-min Rain = 0
KHO1 090204Z 05002KT 00/M03 A3029 RMK A01 T00021026  RH  081%=      5-min Rain = 0
KHO1 090205Z 05002KT 00/M03 A3029 RMK A01 T00021026  RH  081%=      5-min Rain = 0
KHO1 090206Z 05002KT 00/M03 A3029 RMK A01 T00021026  RH  081%=      5-min Rain = 0
KHO1 090207Z 05002KT 00/M03 A3029 RMK A01 T00021026  RH  081%=      5-min Rain = 0
KHO1 090208Z 05002KT 00/M03 A3029 RMK A01 T00021026  RH  082%=      5-min Rain = 0
KHO1 090209Z 05002KT 00/M03 A3029 RMK A01 T00021026  RH  082%=      5-min Rain = 0
KHO1 090210Z 05002KT 00/M03 A3029 RMK A01 T00021025  RH  082%=      5-min Rain = 0
KHO1 090211Z 05001KT 00/M03 A303 RMK A01 T00021025  RH  082%=      5-min Rain = 0
KHO1 090212Z 05001KT 00/M03 A303 RMK A01 T00021025  RH  082%=      5-min Rain = 0
KHO1 090213Z 05001KT 00/M03 A303 RMK A01 T00021025  RH  082%=      5-min Rain = 0
KHO1 090214Z 04001KT 00/M02 A303 RMK A01 T00021024  RH  083%=      5-min Rain = 0
KHO1 090215Z 04001KT 00/M02 A303 RMK A01 T00021024  RH  083%=      5-min Rain = 0
KHO1 090216Z 03001KT 00/M02 A303 RMK A01 T00021023  RH  083%=      5-min Rain = 0
KHO1 090217Z 03001KT 00/M02 A303 RMK A01 T00031023  RH  083%=      5-min Rain = 0
KHO1 090218Z 03001KT 00/M02 A303 RMK A01 T00031023  RH  083%=      5-min Rain = 0
KHO1 090219Z 03001KT 00/M02 A303 RMK A01 T00031022  RH  083%=      5-min Rain = 0
KHO1 090220Z 03001KT 00/M02 A303 RMK A01 T00031022  RH  083%=      5-min Rain = 0
KHO1 090221Z 03001KT 00/M02 A303 RMK A01 T00041022  RH  083%=      5-min Rain = 0
KHO1 090222Z 03001KT 00/M02 A303 RMK A01 T00031022  RH  083%=      5-min Rain = 0
KHO1 090223Z 03000KT 00/M02 A303 RMK A01 T00031020  RH  084%=      5-min Rain = 0
KHO1 090224Z 00000KT 00/M02 A303 RMK A01 T00041020  RH  085%=      5-min Rain = 0
KHO1 090225Z 03000KT 00/M02 A303 RMK A01 T00031020  RH  085%=      5-min Rain = 0
KHO1 090226Z 03000KT 00/M02 A303 RMK A01 T00021020  RH  085%=      5-min Rain = 0
KHO1 090227Z 03000KT 00/M02 A303 RMK A01 T00021021  RH  085%=      5-min Rain = 0
KHO1 090228Z 03001KT 00/M02 A303 RMK A01 T00011022  RH  085%=      5-min Rain = 0
KHO1 090229Z 03001KT 00/02 A303 RMK A01 T00-00-23  RH  085%=      5-min Rain = 0
KHO1 090230Z 03001KT M00/M02 A303 RMK A01 T10011023  RH  085%=      5-min Rain = 0
KHO1 090231Z 03001KT M00/M02 A303 RMK A01 T10011023  RH  085%=      5-min Rain = 0
KHO1 090232Z 03001KT M00/M02 A303 RMK A01 T10011023  RH  086%=      5-min Rain = 0
KHO1 090233Z 03001KT M00/M02 A303 RMK A01 T10011022  RH  086%=      5-min Rain = 0
KHO1 090234Z 03001KT M00/M02 A303 RMK A01 T10021023  RH  086%=      5-min Rain = 0
KHO1 090235Z 03001KT M00/M02 A303 RMK A01 T10021023  RH  086%=      5-min Rain = 0
KHO1 090236Z 03001KT M00/M02 A303 RMK A01 T10021023  RH  086%=      5-min Rain = 0
KHO1 090237Z 03001KT M00/M02 A303 RMK A01 T10031023  RH  086%=      5-min Rain = 0
KHO1 090238Z 03001KT M00/M02 A303 RMK A01 T10031023  RH  086%=      5-min Rain = 0
KHO1 090239Z 03001KT M00/M02 A303 RMK A01 T10031023  RH  087%=      5-min Rain = 0
KHO1 090240Z 03001KT M00/M02 A303 RMK A01 T10031023  RH  087%=      5-min Rain = 0
KHO1 090241Z 03000KT M00/M02 A303 RMK A01 T10031023  RH  087%=      5-min Rain = 0
KHO1 090242Z 03001KT M00/M02 A303 RMK A01 T10031023  RH  087%=      5-min Rain = 0
KHO1 090243Z 03001KT M00/M02 A303 RMK A01 T10041023  RH  087%=      5-min Rain = 0
KHO1 090244Z 03001KT M00/M02 A303 RMK A01 T10041023  RH  087%=      5-min Rain = 0
KHO1 090245Z 03001KT M00/M02 A303 RMK A01 T10041023  RH  087%=      5-min Rain = 0
KHO1 090246Z 03001KT M00/M02 A303 RMK A01 T10041023  RH  087%=      5-min Rain = 0
KHO1 090247Z 03000KT M00/M02 A303 RMK A01 T10041023  RH  087%=      5-min Rain = 0
KHO1 090248Z 00000KT M00/M02 A303 RMK A01 T10041023  RH  087%=      5-min Rain = 0
KHO1 090249Z 00000KT M01/M02 A303 RMK A01 T10051024  RH  087%=      5-min Rain = 0
KHO1 090250Z 00000KT M01/M02 A303 RMK A01 T10051024  RH  087%=      5-min Rain = 0
KHO1 090251Z 09001KT M01/M02 A303 RMK A01 T10051023  RH  088%=      5-min Rain = 0
KHO1 090252Z 10002KT M01/M02 A303 RMK A01 T10051023  RH  088%=      5-min Rain = 0
KHO1 090253Z 10002KT M01/M02 A303 RMK A01 T10051023  RH  088%=      5-min Rain = 0
KHO1 090254Z 10002KT M01/M02 A303 RMK A01 T10061022  RH  089%=      5-min Rain = 0
KHO1 090255Z 10002KT M01/M02 A303 RMK A01 T10061022  RH  089%=      5-min Rain = 0
KHO1 090256Z 10002KT M01/M02 A303 RMK A01 T10061021  RH  089%=      5-min Rain = 0
KHO1 090257Z 10002KT M01/M02 A303 RMK A01 T10061021  RH  090%=      5-min Rain = 0
KHO1 090258Z 10002KT M01/M02 A303 RMK A01 T10061021  RH  090%=      5-min Rain = 0
KHO1 090259Z 10002KT M01/M02 A303 RMK A01 T10061020  RH  090%=      5-min Rain = 0
KHO1 090300Z 10002KT M01/M02 A303 RMK A01 T10061020  RH  090%=      5-min Rain = 0
KHO1 090301Z 10002KT M01/M02 A303 RMK A01 T10071021  RH  090%=      5-min Rain = 0
KHO1 090302Z 10002KT M01/M02 A303 RMK A01 T10071020  RH  090%=      5-min Rain = 0
KHO1 090303Z 10002KT M01/M02 A303 RMK A01 T10061019  RH  091%=      5-min Rain = 0
KHO1 090304Z 10003KT M01/M02 A303 RMK A01 T10061018  RH  091%=      5-min Rain = 0
KHO1 090305Z 10003KT M01/M02 A303 RMK A01 T10061019  RH  091%=      5-min Rain = 0
KHO1 090306Z 10003KT M01/M02 A303 RMK A01 T10071020  RH  091%=      5-min Rain = 0
KHO1 090307Z 10003KT M01/M02 A303 RMK A01 T10071020  RH  091%=      5-min Rain = 0
KHO1 090308Z 10002KT M01/M02 A303 RMK A01 T10071020  RH  091%=      5-min Rain = 0
KHO1 090309Z 10002KT M01/M02 A303 RMK A01 T10071020  RH  091%=      5-min Rain = 0
KHO1 090310Z 10001KT M01/M02 A303 RMK A01 T10071020  RH  091%=      5-min Rain = 0
KHO1 090311Z 10002KT M01/M02 A303 RMK A01 T10071020  RH  091%=      5-min Rain = 0
KHO1 090312Z 10002KT M01/M02 A3029 RMK A01 T10071019  RH  091%=      5-min Rain = 0
KHO1 090313Z 10002KT M01/M02 A3029 RMK A01 T10071019  RH  091%=      5-min Rain = 0
KHO1 090314Z 10003KT M01/M02 A3029 RMK A01 T10071019  RH  091%=      5-min Rain = 0
KHO1 090315Z 10003KT M01/M02 A303 RMK A01 T10071020  RH  091%=      5-min Rain = 0
KHO1 090316Z 10003KT M01/M02 A3029 RMK A01 T10071020  RH  091%=      5-min Rain = 0
KHO1 090317Z 10003KT M01/M02 A3029 RMK A01 T10071020  RH  091%=      5-min Rain = 0
KHO1 090318Z 10003KT M01/M02 A3029 RMK A01 T10071021  RH  091%=      5-min Rain = 0
KHO1 090319Z 10003KT M01/M02 A3029 RMK A01 T10071021  RH  090%=      5-min Rain = 0
KHO1 090320Z 10003KT M01/M02 A3029 RMK A01 T10071021  RH  090%=      5-min Rain = 0
KHO1 090321Z 10003KT M01/M02 A3029 RMK A01 T10081022  RH  090%=      5-min Rain = 0
KHO1 090322Z 10003KT M01/M02 A3029 RMK A01 T10081022  RH  090%=      5-min Rain = 0
KHO1 090323Z 10003KT M01/M02 A3029 RMK A01 T10081022  RH  090%=      5-min Rain = 0
KHO1 090324Z 10003KT M01/M02 A3029 RMK A01 T10081022  RH  090%=      5-min Rain = 0
KHO1 090325Z 10002KT M01/M02 A3029 RMK A01 T10081021  RH  090%=      5-min Rain = 0
KHO1 090326Z 10002KT M01/M02 A3029 RMK A01 T10081021  RH  090%=      5-min Rain = 0
KHO1 090327Z 09002KT M01/M02 A303 RMK A01 T10071021  RH  090%=      5-min Rain = 0
KHO1 090328Z 10002KT M01/M02 A303 RMK A01 T10071021  RH  090%=      5-min Rain = 0
KHO1 090329Z 10002KT M01/M02 A303 RMK A01 T10071021  RH  090%=      5-min Rain = 0
KHO1 090330Z 10002KT M01/M02 A303 RMK A01 T10071021  RH  091%=      5-min Rain = 0
KHO1 090331Z 11002KT M01/M02 A303 RMK A01 T10071020  RH  091%=      5-min Rain = 0
KHO1 090332Z 11002KT M01/M02 A303 RMK A01 T10071020  RH  091%=      5-min Rain = 0
KHO1 090333Z 11002KT M01/M02 A303 RMK A01 T10061018  RH  092%=      5-min Rain = 0
KHO1 090334Z 11002KT M01/M02 A303 RMK A01 T10051017  RH  092%=      5-min Rain = 0
KHO1 090335Z 10002KT M01/M02 A303 RMK A01 T10051018  RH  091%=      5-min Rain = 0
KHO1 090336Z 10002KT M01/M02 A303 RMK A01 T10061019  RH  091%=      5-min Rain = 0
KHO1 090337Z 10001KT M01/M02 A303 RMK A01 T10061019  RH  091%=      5-min Rain = 0
KHO1 090338Z 10001KT M01/M02 A303 RMK A01 T10061020  RH  090%=      5-min Rain = 0
KHO1 090339Z 10002KT M01/M02 A303 RMK A01 T10061020  RH  090%=      5-min Rain = 0
KHO1 090340Z 10001KT M01/M02 A303 RMK A01 T10061020  RH  090%=      5-min Rain = 0
KHO1 090341Z 10001KT M01/M02 A303 RMK A01 T10061019  RH  091%=      5-min Rain = 0
KHO1 090342Z 10001KT M01/M02 A303 RMK A01 T10061019  RH  090%=      5-min Rain = 0
KHO1 090343Z 10001KT M01/M02 A303 RMK A01 T10061020  RH  090%=      5-min Rain = 0
KHO1 090344Z 10000KT M01/M02 A303 RMK A01 T10061020  RH  090%=      5-min Rain = 0
KHO1 090345Z 10001KT M01/M02 A303 RMK A01 T10061020  RH  091%=      5-min Rain = 0
KHO1 090346Z 10001KT M01/M02 A303 RMK A01 T10061019  RH  091%=      5-min Rain = 0
KHO1 090347Z 10001KT M01/M02 A303 RMK A01 T10061020  RH  091%=      5-min Rain = 0
KHO1 090348Z 10001KT M01/M02 A303 RMK A01 T10071020  RH  091%=      5-min Rain = 0
KHO1 090349Z 09001KT M01/M02 A303 RMK A01 T10071020  RH  091%=      5-min Rain = 0
KHO1 090350Z 09001KT M01/M02 A303 RMK A01 T10071019  RH  091%=      5-min Rain = 0
KHO1 090351Z 09001KT M01/M02 A303 RMK A01 T10071019  RH  092%=      5-min Rain = 0
KHO1 090352Z 09001KT M01/M02 A303 RMK A01 T10071018  RH  092%=      5-min Rain = 0
KHO1 090353Z 09001KT M01/M02 A303 RMK A01 T10071017  RH  093%=      5-min Rain = 0
KHO1 090354Z 09001KT M01/M02 A303 RMK A01 T10071016  RH  093%=      5-min Rain = 0
KHO1 090355Z 09001KT M01/M02 A303 RMK A01 T10071016  RH  094%=      5-min Rain = 0
KHO1 090356Z 09001KT M01/M02 A303 RMK A01 T10061016  RH  094%=      5-min Rain = 0
KHO1 090357Z 09001KT M01/M02 A303 RMK A01 T10071016  RH  093%=      5-min Rain = 0
KHO1 090358Z 09001KT M01/M02 A303 RMK A01 T10071016  RH  093%=      5-min Rain = 0
KHO1 090359Z 10002KT M01/M02 A303 RMK A01 T10071016  RH  093%=      5-min Rain = 0
KHO1 090400Z 10001KT M01/M02 A303 RMK A01 T10071016  RH  093%=      5-min Rain = 0
KHO1 090401Z 11001KT M01/M02 A303 RMK A01 T10071016  RH  093%=      5-min Rain = 0
KHO1 090402Z 11001KT M01/M02 A303 RMK A01 T10071016  RH  093%=      5-min Rain = 0
KHO1 090403Z 11001KT M01/M02 A303 RMK A01 T10071016  RH  093%=      5-min Rain = 0
KHO1 090404Z 12001KT M01/M02 A303 RMK A01 T10071017  RH  093%=      5-min Rain = 0
KHO1 090405Z 12001KT M01/M02 A303 RMK A01 T10071017  RH  093%=      5-min Rain = 0
KHO1 090406Z 12002KT M01/M02 A303 RMK A01 T10081018  RH  093%=      5-min Rain = 0
KHO1 090407Z 12001KT M01/M02 A303 RMK A01 T10081018  RH  093%=      5-min Rain = 0
KHO1 090408Z 12001KT M01/M02 A303 RMK A01 T10081018  RH  093%=      5-min Rain = 0
KHO1 090409Z 12002KT M01/M02 A303 RMK A01 T10081019  RH  093%=      5-min Rain = 0
KHO1 090410Z 12002KT M01/M02 A303 RMK A01 T10091019  RH  093%=      5-min Rain = 0
KHO1 090411Z 12002KT M01/M02 A303 RMK A01 T10091019  RH  093%=      5-min Rain = 0
KHO1 090412Z 12002KT M01/M02 A303 RMK A01 T10091019  RH  093%=      5-min Rain = 0
KHO1 090413Z 12002KT M01/M02 A303 RMK A01 T10091018  RH  093%=      5-min Rain = 0
KHO1 090414Z 11002KT M01/M02 A303 RMK A01 T10091019  RH  093%=      5-min Rain = 0
KHO1 090415Z 11001KT M01/M02 A303 RMK A01 T10091018  RH  094%=      5-min Rain = 0
KHO1 090416Z 11001KT M01/M02 A303 RMK A01 T10091018  RH  094%=      5-min Rain = 0
KHO1 090417Z 11001KT M01/M02 A303 RMK A01 T10091018  RH  094%=      5-min Rain = 0
KHO1 090418Z 11001KT M01/M02 A303 RMK A01 T10091018  RH  094%=      5-min Rain = 0
KHO1 090419Z 11001KT M01/M02 A303 RMK A01 T10091017  RH  094%=      5-min Rain = 0
KHO1 090420Z 11001KT M01/M02 A303 RMK A01 T10091017  RH  095%=      5-min Rain = 0
KHO1 090421Z 11001KT M01/M02 A3031 RMK A01 T10091016  RH  095%=      5-min Rain = 0
KHO1 090422Z 11001KT M01/M02 A3031 RMK A01 T10091016  RH  095%=      5-min Rain = 0
KHO1 090423Z 11002KT M01/M02 A3031 RMK A01 T10091016  RH  095%=      5-min Rain = 0
KHO1 090424Z 11002KT M01/M02 A3031 RMK A01 T10091016  RH  095%=      5-min Rain = 0
KHO1 090425Z 11002KT M01/M02 A3031 RMK A01 T10091016  RH  095%=      5-min Rain = 0
KHO1 090426Z 11002KT M01/M02 A3031 RMK A01 T10081015  RH  095%=      5-min Rain = 0
KHO1 090427Z 11002KT M01/M02 A3031 RMK A01 T10081015  RH  095%=      5-min Rain = 0
KHO1 090428Z 12002KT M01/M02 A3031 RMK A01 T10091015  RH  095%=      5-min Rain = 0
KHO1 090429Z 12002KT M01/M02 A3031 RMK A01 T10091016  RH  095%=      5-min Rain = 0
KHO1 090430Z 12002KT M01/M02 A3031 RMK A01 T10101017  RH  095%=      5-min Rain = 0
KHO1 090431Z 12002KT M01/M02 A3031 RMK A01 T10101017  RH  095%=      5-min Rain = 0
KHO1 090432Z 12002KT M01/M02 A3031 RMK A01 T10091016  RH  095%=      5-min Rain = 0
KHO1 090433Z 12002KT M01/M02 A3031 RMK A01 T10091016  RH  095%=      5-min Rain = 0
KHO1 090434Z 12002KT M01/M02 A3031 RMK A01 T10091016  RH  095%=      5-min Rain = 0
KHO1 090435Z 11002KT M01/M02 A3031 RMK A01 T10091016  RH  095%=      5-min Rain = 0
KHO1 090436Z 11002KT M01/M02 A3031 RMK A01 T10091016  RH  095%=      5-min Rain = 0
KHO1 090437Z 11002KT M01/M02 A3031 RMK A01 T10091016  RH  095%=      5-min Rain = 0
KHO1 090438Z 11002KT M01/M02 A3031 RMK A01 T10091016  RH  095%=      5-min Rain = 0
KHO1 090439Z 11002KT M01/M02 A3031 RMK A01 T10101016  RH  095%=      5-min Rain = 0
KHO1 090440Z 11001KT M01/M02 A3031 RMK A01 T10101016  RH  095%=      5-min Rain = 0
KHO1 090441Z 11002KT M01/M02 A3031 RMK A01 T10101017  RH  095%=      5-min Rain = 0
KHO1 090442Z 11002KT M01/M02 A3031 RMK A01 T10101017  RH  095%=      5-min Rain = 0
KHO1 090443Z 11002KT M01/M02 A3031 RMK A01 T10101016  RH  096%=      5-min Rain = 0
KHO1 090444Z 11003KT M01/M02 A3031 RMK A01 T10101016  RH  096%=      5-min Rain = 0
KHO1 090445Z 10003KT M01/M02 A3031 RMK A01 T10101015  RH  096%=      5-min Rain = 0
KHO1 090446Z 10003KT M01/M02 A3031 RMK A01 T10101016  RH  096%=      5-min Rain = 0
KHO1 090447Z 11003KT M01/M02 A3031 RMK A01 T10101016  RH  096%=      5-min Rain = 0
KHO1 090448Z 11003KT M01/M02 A3031 RMK A01 T10101015  RH  096%=      5-min Rain = 0
KHO1 090449Z 11003KT M01/M02 A3031 RMK A01 T10091015  RH  096%=      5-min Rain = 0
KHO1 090450Z 12002KT M01/M02 A3031 RMK A01 T10091015  RH  096%=      5-min Rain = 0
KHO1 090451Z 12002KT M01/M01 A3031 RMK A01 T10091014  RH  096%=      5-min Rain = 0
KHO1 090452Z 11002KT M01/M02 A3031 RMK A01 T10091015  RH  096%=      5-min Rain = 0
KHO1 090453Z 11002KT M01/M02 A3031 RMK A01 T10091015  RH  096%=      5-min Rain = 0
KHO1 090454Z 11003KT M01/M02 A3031 RMK A01 T10101015  RH  096%=      5-min Rain = 0
KHO1 090455Z 12002KT M01/M02 A3031 RMK A01 T10091015  RH  096%=      5-min Rain = 0
KHO1 090456Z 12002KT M01/M01 A3031 RMK A01 T10091014  RH  096%=      5-min Rain = 0
KHO1 090457Z 12002KT M01/M01 A3031 RMK A01 T10091014  RH  097%=      5-min Rain = 0
KHO1 090458Z 12003KT M01/M01 A3031 RMK A01 T10091013  RH  097%=      5-min Rain = 0
KHO1 090459Z 12003KT M01/M01 A3031 RMK A01 T10091013  RH  097%=      5-min Rain = 0
KHO1 090500Z 11003KT M01/M01 A3031 RMK A01 T10091013  RH  097%=      5-min Rain = 0
KHO1 090501Z 11003KT M01/M01 A3031 RMK A01 T10091014  RH  097%=      5-min Rain = 0
KHO1 090502Z 12003KT M01/M01 A3031 RMK A01 T10091014  RH  097%=      5-min Rain = 0
KHO1 090503Z 12003KT M01/M01 A3031 RMK A01 T10081013  RH  097%=      5-min Rain = 0
KHO1 090504Z 12003KT M01/M01 A3031 RMK A01 T10081012  RH  097%=      5-min Rain = 0
KHO1 090505Z 12003KT M01/M01 A3031 RMK A01 T10081012  RH  097%=      5-min Rain = 0
KHO1 090506Z 12003KT M01/M01 A3031 RMK A01 T10081012  RH  097%=      5-min Rain = 0
KHO1 090507Z 11003KT M01/M01 A3031 RMK A01 T10081012  RH  097%=      5-min Rain = 0
KHO1 090508Z 11003KT M01/M01 A3031 RMK A01 T10081013  RH  097%=      5-min Rain = 0
KHO1 090509Z 11003KT M01/M01 A3031 RMK A01 T10091013  RH  097%=      5-min Rain = 0
KHO1 090510Z 12003KT M01/M01 A3031 RMK A01 T10091014  RH  097%=      5-min Rain = 0
KHO1 090511Z 12003KT M01/M01 A3031 RMK A01 T10091014  RH  097%=      5-min Rain = 0
KHO1 090512Z 12003KT M01/M01 A3031 RMK A01 T10091014  RH  097%=      5-min Rain = 0
KHO1 090513Z 11003KT M01/M01 A3031 RMK A01 T10091014  RH  097%=      5-min Rain = 0
KHO1 090514Z 11003KT M01/M01 A3031 RMK A01 T10091014  RH  097%=      5-min Rain = 0
KHO1 090515Z 11003KT M01/M01 A3031 RMK A01 T10101014  RH  097%=      5-min Rain = 0
KHO1 090516Z 11004KT M01/M01 A3031 RMK A01 T10101014  RH  097%=      5-min Rain = 0
KHO1 090517Z 11004KT M01/M02 A3031 RMK A01 T10101015  RH  097%=      5-min Rain = 0
KHO1 090518Z 11004KT M01/M02 A3031 RMK A01 T10101015  RH  097%=      5-min Rain = 0
KHO1 090519Z 11004KT M01/M01 A3031 RMK A01 T10101014  RH  097%=      5-min Rain = 0
KHO1 090520Z 11004KT M01/M01 A3031 RMK A01 T10101014  RH  097%=      5-min Rain = 0
KHO1 090521Z 10004KT M01/M01 A3031 RMK A01 T10101014  RH  097%=      5-min Rain = 0
KHO1 090522Z 11004KT M01/M01 A3031 RMK A01 T10101014  RH  097%=      5-min Rain = 0
KHO1 090523Z 11004KT M01/M01 A3031 RMK A01 T10101014  RH  097%=      5-min Rain = 0
KHO1 090524Z 11004KT M01/M01 A3031 RMK A01 T10101013  RH  097%=      5-min Rain = 0
KHO1 090525Z 11004KT M01/M01 A3031 RMK A01 T10091013  RH  097%=      5-min Rain = 0
KHO1 090526Z 12003KT M01/M01 A3031 RMK A01 T10091013  RH  097%=      5-min Rain = 0
KHO1 090527Z 12004KT M01/M01 A3031 RMK A01 T10081012  RH  098%=      5-min Rain = 0
KHO1 090528Z 12004KT M01/M01 A3031 RMK A01 T10081011  RH  098%=      5-min Rain = 0
KHO1 090529Z 12004KT M01/M01 A3031 RMK A01 T10081011  RH  098%=      5-min Rain = 0
KHO1 090530Z 12004KT M01/M01 A3031 RMK A01 T10071011  RH  098%=      5-min Rain = 0
KHO1 090531Z 12004KT M01/M01 A3031 RMK A01 T10071011  RH  098%=      5-min Rain = 0
KHO1 090532Z 12003KT M01/M01 A3031 RMK A01 T10081011  RH  098%=      5-min Rain = 0
KHO1 090533Z 12003KT M01/M01 A3031 RMK A01 T10081011  RH  098%=      5-min Rain = 0
KHO1 090534Z 12003KT M01/M01 A3031 RMK A01 T10081011  RH  097%=      5-min Rain = 0
KHO1 090535Z 12003KT M01/M01 A3031 RMK A01 T10081012  RH  097%=      5-min Rain = 0
KHO1 090536Z 13003KT M01/M01 A3031 RMK A01 T10081011  RH  098%=      5-min Rain = 0
KHO1 090537Z 13003KT M01/M01 A3031 RMK A01 T10081011  RH  098%=      5-min Rain = 0
KHO1 090538Z 12003KT M01/M01 A3031 RMK A01 T10081011  RH  098%=      5-min Rain = 0
KHO1 090539Z 12003KT M01/M01 A3031 RMK A01 T10081011  RH  098%=      5-min Rain = 0
KHO1 090540Z 12003KT M01/M01 A3031 RMK A01 T10081011  RH  098%=      5-min Rain = 0
KHO1 090541Z 12003KT M01/M01 A3031 RMK A01 T10081011  RH  098%=      5-min Rain = 0
KHO1 090542Z 12003KT M01/M01 A3031 RMK A01 T10081011  RH  098%=      5-min Rain = 0
KHO1 090543Z 12002KT M01/M01 A3031 RMK A01 T10081012  RH  098%=      5-min Rain = 0
KHO1 090544Z 12002KT M01/M01 A3031 RMK A01 T10081012  RH  098%=      5-min Rain = 0
KHO1 090545Z 13002KT M01/M01 A3031 RMK A01 T10091012  RH  098%=      5-min Rain = 0
KHO1 090546Z 12002KT M01/M01 A3031 RMK A01 T10091012  RH  098%=      5-min Rain = 0
KHO1 090547Z 12002KT M01/M01 A3031 RMK A01 T10091012  RH  098%=      5-min Rain = 0
KHO1 090548Z 12002KT M01/M01 A3031 RMK A01 T10091012  RH  098%=      5-min Rain = 0
KHO1 090549Z 12001KT M01/M01 A3031 RMK A01 T10091013  RH  098%=      5-min Rain = 0
KHO1 090550Z 12002KT M01/M01 A3031 RMK A01 T10101013  RH  098%=      5-min Rain = 0
KHO1 090551Z 13002KT M01/M01 A3031 RMK A01 T10101013  RH  098%=      5-min Rain = 0
KHO1 090552Z 13002KT M01/M01 A3031 RMK A01 T10101014  RH  098%=      5-min Rain = 0
KHO1 090553Z 12002KT M01/M01 A3031 RMK A01 T10101014  RH  098%=      5-min Rain = 0
KHO1 090554Z 12002KT M01/M01 A3031 RMK A01 T10111014  RH  097%=      5-min Rain = 0
KHO1 090555Z 12001KT M01/M01 A3031 RMK A01 T10111014  RH  097%=      5-min Rain = 0
KHO1 090556Z 12002KT M01/M02 A3031 RMK A01 T10111015  RH  098%=      5-min Rain = 0
KHO1 090557Z 12001KT M01/M02 A3031 RMK A01 T10111015  RH  098%=      5-min Rain = 0
KHO1 090558Z 12001KT M01/M02 A3031 RMK A01 T10111015  RH  098%=      5-min Rain = 0
KHO1 090559Z 12001KT M01/M02 A3031 RMK A01 T10111015  RH  098%=      5-min Rain = 0

Page generated in 0.1241 seconds.